Time,TemperatureF,DewpointF,PressureIn,WindDirection,WindDirectionDegrees,WindSpeedMPH,WindSpeedGustMPH,Humidity,HourlyPrecipIn,Conditions,Clouds,dailyrainin,SoftwareType,DateUTC
2013-04-02 00:00:00,50.9,37.5,29.93,North,360,7.0,19.0,60,0.00,,---,0.01,VWS V13.01,2013-04-02 04:00:00,
2013-04-02 00:05:00,50.6,37.2,29.93,NNW,341,5.0,16.0,60,0.00,,---,0.00,VWS V13.01,2013-04-02 04:05:00,
2013-04-02 00:10:00,50.3,37.0,29.94,ENE,68,6.0,16.0,60,0.00,,---,0.00,VWS V13.01,2013-04-02 04:10:00,
2013-04-02 00:15:00,50.1,36.8,29.94,NNW,348,2.0,16.0,60,0.00,,---,0.00,VWS V13.01,2013-04-02 04:15:00,
2013-04-02 00:20:00,49.8,36.5,29.94,North,360,10.0,16.0,60,0.00,,---,0.00,VWS V13.01,2013-04-02 04:20:00,
2013-04-02 00:25:00,49.6,36.7,29.94,NNE,19,0.0,16.0,61,0.00,,---,0.00,VWS V13.01,2013-04-02 04:25:00,
2013-04-02 00:30:00,49.3,36.4,29.95,NW,314,7.0,16.0,61,0.00,,---,0.00,VWS V13.01,2013-04-02 04:30:00,
2013-04-02 00:35:00,49.1,36.2,29.95,NNW,336,7.0,15.0,61,0.00,,---,0.00,VWS V13.01,2013-04-02 04:35:00,
2013-04-02 00:40:00,48.8,36.0,29.95,North,355,4.0,15.0,61,0.00,,---,0.00,VWS V13.01,2013-04-02 04:40:00,
2013-04-02 00:42:00,48.8,36.0,29.95,NNE,20,3.0,15.0,61,0.00,,---,0.00,VWS V13.01,2013-04-02 04:42:00,
2013-04-02 00:45:00,48.6,36.2,29.95,North,349,7.0,15.0,62,0.00,,---,0.00,VWS V13.01,2013-04-02 04:45:00,
2013-04-02 00:46:00,48.6,35.8,29.95,North,350,0.0,15.0,61,0.00,,---,0.00,VWS V13.01,2013-04-02 04:46:00,
2013-04-02 00:47:00,48.5,35.7,29.96,NNW,348,0.0,15.0,61,0.00,,---,0.00,VWS V13.01,2013-04-02 04:47:00,
2013-04-02 00:50:00,48.5,36.1,29.96,North,355,6.0,15.0,62,0.00,,---,0.00,VWS V13.01,2013-04-02 04:50:00,
2013-04-02 00:51:00,48.4,36.0,29.96,North,355,3.0,15.0,62,0.00,,---,0.00,VWS V13.01,2013-04-02 04:51:00,
2013-04-02 00:52:00,48.4,36.0,29.96,NE,45,9.0,15.0,62,0.00,,---,0.00,VWS V13.01,2013-04-02 04:52:00,
2013-04-02 00:55:00,48.3,35.9,29.96,North,11,2.0,15.0,62,0.00,,---,0.00,VWS V13.01,2013-04-02 04:55:00,
2013-04-02 00:56:00,48.2,35.8,29.96,North,9,4.0,15.0,62,0.00,,---,0.00,VWS V13.01,2013-04-02 04:56:00,
2013-04-02 00:57:00,48.2,35.8,29.96,North,9,0.0,15.0,62,0.00,,---,0.00,VWS V13.01,2013-04-02 04:57:00,
2013-04-02 01:00:00,48.1,35.7,29.96,North,9,0.0,15.0,62,0.00,,---,0.00,VWS V13.01,2013-04-02 05:00:00,
2013-04-02 01:01:00,48.1,35.7,29.96,North,9,0.0,15.0,62,0.00,,---,0.00,VWS V13.01,2013-04-02 05:01:00,
2013-04-02 01:02:00,48.1,35.7,29.96,North,9,2.0,3.0,62,0.00,,---,0.00,VWS V13.01,2013-04-02 05:02:00,
2013-04-02 01:05:00,47.9,35.5,29.96,North,360,3.0,7.0,62,0.00,,---,0.00,VWS V13.01,2013-04-02 05:05:00,
2013-04-02 01:06:00,47.9,35.5,29.96,NNE,24,2.0,7.0,62,0.00,,---,0.00,VWS V13.01,2013-04-02 05:06:00,
2013-04-02 01:07:00,47.8,35.4,29.96,NNE,22,2.0,7.0,62,0.00,,---,0.00,VWS V13.01,2013-04-02 05:07:00,
2013-04-02 01:08:00,47.8,35.4,29.96,NNE,21,0.0,7.0,62,0.00,,---,0.00,VWS V13.01,2013-04-02 05:08:00,
2013-04-02 01:10:00,47.7,35.3,29.96,North,350,5.0,7.0,62,0.00,,---,0.00,VWS V13.01,2013-04-02 05:10:00,
2013-04-02 01:11:00,47.7,35.3,29.96,North,350,1.0,7.0,62,0.00,,---,0.00,VWS V13.01,2013-04-02 05:11:00,
2013-04-02 01:12:00,47.6,35.6,29.96,North,350,0.0,7.0,63,0.00,,---,0.00,VWS V13.01,2013-04-02 05:12:00,
2013-04-02 01:13:00,47.6,35.6,29.96,NNW,345,6.0,7.0,63,0.00,,---,0.00,VWS V13.01,2013-04-02 05:13:00,
2013-04-02 01:15:00,47.6,35.6,29.96,NNW,346,0.0,7.0,63,0.00,,---,0.00,VWS V13.01,2013-04-02 05:15:00,
2013-04-02 01:16:00,47.5,35.5,29.96,NNW,344,3.0,7.0,63,0.00,,---,0.00,VWS V13.01,2013-04-02 05:16:00,
2013-04-02 01:17:00,47.5,35.5,29.96,NNW,344,1.0,7.0,63,0.00,,---,0.00,VWS V13.01,2013-04-02 05:17:00,
2013-04-02 01:18:00,47.4,35.5,29.96,NNW,344,0.0,7.0,63,0.00,,---,0.00,VWS V13.01,2013-04-02 05:18:00,
2013-04-02 01:20:00,47.4,35.5,29.96,NNW,341,4.0,11.0,63,0.00,,---,0.00,VWS V13.01,2013-04-02 05:20:00,
2013-04-02 01:22:00,47.3,35.4,29.97,NNW,348,2.0,11.0,63,0.00,,---,0.00,VWS V13.01,2013-04-02 05:22:00,
2013-04-02 01:24:00,47.2,35.3,29.97,NNW,348,6.0,11.0,63,0.00,,---,0.00,VWS V13.01,2013-04-02 05:24:00,
2013-04-02 01:25:00,47.2,35.3,29.97,North,11,2.0,15.0,63,0.00,,---,0.00,VWS V13.01,2013-04-02 05:25:00,
2013-04-02 01:27:00,47.1,34.8,29.97,NNW,346,0.0,15.0,62,0.00,,---,0.00,VWS V13.01,2013-04-02 05:27:00,
2013-04-02 01:29:00,47.0,34.7,29.97,NNW,345,3.0,15.0,62,0.00,,---,0.00,VWS V13.01,2013-04-02 05:29:00,
2013-04-02 01:30:00,47.0,35.1,29.97,North,349,5.0,15.0,63,0.00,,---,0.00,VWS V13.01,2013-04-02 05:30:00,
2013-04-02 01:32:00,46.9,35.0,29.97,North,355,6.0,6.0,63,0.00,,---,0.00,VWS V13.01,2013-04-02 05:32:00,
2013-04-02 01:34:00,46.9,35.0,29.97,North,360,0.0,6.0,63,0.00,,---,0.00,VWS V13.01,2013-04-02 05:34:00,
2013-04-02 01:35:00,46.9,35.0,29.97,North,5,0.0,11.0,63,0.00,,---,0.00,VWS V13.01,2013-04-02 05:35:00,
2013-04-02 01:37:00,46.8,34.9,29.97,North,5,2.0,11.0,63,0.00,,---,0.00,VWS V13.01,2013-04-02 05:37:00,
2013-04-02 01:38:00,46.8,34.9,29.97,North,360,0.0,11.0,63,0.00,,---,0.00,VWS V13.01,2013-04-02 05:38:00,
2013-04-02 01:39:00,46.8,34.9,29.97,North,360,2.0,11.0,63,0.00,,---,0.00,VWS V13.01,2013-04-02 05:39:00,
2013-04-02 01:40:00,46.7,34.8,29.97,NE,51,0.0,11.0,63,0.00,,---,0.00,VWS V13.01,2013-04-02 05:40:00,
2013-04-02 01:42:00,46.7,34.8,29.97,NNE,26,0.0,11.0,63,0.00,,---,0.00,VWS V13.01,2013-04-02 05:42:00,
2013-04-02 01:43:00,46.7,34.8,29.97,NNE,26,1.0,11.0,63,0.00,,---,0.00,VWS V13.01,2013-04-02 05:43:00,
2013-04-02 01:44:00,46.6,34.7,29.97,NNE,31,3.0,11.0,63,0.00,,---,0.00,VWS V13.01,2013-04-02 05:44:00,
2013-04-02 01:45:00,46.6,34.7,29.97,NNE,24,2.0,11.0,63,0.00,,---,0.00,VWS V13.01,2013-04-02 05:45:00,
2013-04-02 01:47:00,46.5,34.6,29.97,NNE,24,0.0,11.0,63,0.00,,---,0.00,VWS V13.01,2013-04-02 05:47:00,
2013-04-02 01:48:00,46.5,34.6,29.97,NNE,24,0.0,11.0,63,0.00,,---,0.00,VWS V13.01,2013-04-02 05:48:00,
2013-04-02 01:49:00,46.5,34.6,29.97,NNW,345,0.0,11.0,63,0.00,,---,0.00,VWS V13.01,2013-04-02 05:49:00,
2013-04-02 01:50:00,46.4,34.5,29.97,NNW,346,2.0,11.0,63,0.00,,---,0.00,VWS V13.01,2013-04-02 05:50:00,
2013-04-02 01:52:00,46.4,34.5,29.97,NNE,29,2.0,11.0,63,0.00,,---,0.00,VWS V13.01,2013-04-02 05:52:00,
2013-04-02 01:53:00,46.4,34.5,29.97,NNE,30,3.0,11.0,63,0.00,,---,0.00,VWS V13.01,2013-04-02 05:53:00,
2013-04-02 01:54:00,46.4,34.5,29.97,NNE,26,0.0,11.0,63,0.00,,---,0.00,VWS V13.01,2013-04-02 05:54:00,
2013-04-02 01:56:00,46.3,34.4,29.97,NNE,26,0.0,11.0,63,0.00,,---,0.00,VWS V13.01,2013-04-02 05:56:00,
2013-04-02 01:57:00,46.3,34.4,29.97,NNE,25,1.0,11.0,63,0.00,,---,0.00,VWS V13.01,2013-04-02 05:57:00,
2013-04-02 01:59:00,46.2,34.3,29.97,NNW,345,0.0,11.0,63,0.00,,---,0.00,VWS V13.01,2013-04-02 05:59:00,
2013-04-02 02:01:00,46.1,34.2,29.97,NNW,346,0.0,4.0,63,0.00,,---,0.00,VWS V13.01,2013-04-02 06:01:00,
2013-04-02 02:02:00,46.1,34.2,29.97,NNW,345,0.0,4.0,63,0.00,,---,0.00,VWS V13.01,2013-04-02 06:02:00,
2013-04-02 02:03:00,46.1,34.2,29.97,NNW,345,0.0,4.0,63,0.00,,---,0.00,VWS V13.01,2013-04-02 06:03:00,
2013-04-02 02:04:00,46.0,34.1,29.97,NNW,344,9.0,9.0,63,0.00,,---,0.00,VWS V13.01,2013-04-02 06:04:00,
2013-04-02 02:06:00,46.0,34.1,29.97,North,360,4.0,9.0,63,0.00,,---,0.00,VWS V13.01,2013-04-02 06:06:00,
2013-04-02 02:08:00,45.9,34.0,29.96,North,355,6.0,14.0,63,0.00,,---,0.00,VWS V13.01,2013-04-02 06:08:00,
2013-04-02 02:10:00,45.9,34.0,29.96,NNW,346,6.0,14.0,63,0.00,,---,0.00,VWS V13.01,2013-04-02 06:10:00,
2013-04-02 02:11:00,45.8,33.9,29.96,North,350,4.0,14.0,63,0.00,,---,0.00,VWS V13.01,2013-04-02 06:11:00,
2013-04-02 02:13:00,45.8,33.9,29.97,North,360,5.0,14.0,63,0.00,,---,0.00,VWS V13.01,2013-04-02 06:13:00,
2013-04-02 02:15:00,45.7,33.8,29.96,ENE,59,10.0,15.0,63,0.00,,---,0.00,VWS V13.01,2013-04-02 06:15:00,
2013-04-02 02:16:00,45.6,33.8,29.96,North,5,0.0,16.0,63,0.00,,---,0.00,VWS V13.01,2013-04-02 06:16:00,
2013-04-02 02:18:00,45.6,33.8,29.96,North,5,3.0,16.0,63,0.00,,---,0.00,VWS V13.01,2013-04-02 06:18:00,
2013-04-02 02:20:00,45.5,33.7,29.97,North,360,2.0,16.0,63,0.00,,---,0.00,VWS V13.01,2013-04-02 06:20:00,
2013-04-02 02:21:00,45.5,33.7,29.96,North,360,1.0,16.0,63,0.00,,---,0.00,VWS V13.01,2013-04-02 06:21:00,
2013-04-02 02:23:00,45.5,33.7,29.96,North,355,9.0,16.0,63,0.00,,---,0.00,VWS V13.01,2013-04-02 06:23:00,
2013-04-02 02:25:00,45.4,33.6,29.96,NE,38,1.0,16.0,63,0.00,,---,0.00,VWS V13.01,2013-04-02 06:25:00,
2013-04-02 02:28:00,45.4,33.6,29.96,NNE,31,0.0,16.0,63,0.00,,---,0.00,VWS V13.01,2013-04-02 06:28:00,
2013-04-02 02:30:00,45.3,33.5,29.96,North,355,0.0,16.0,63,0.00,,---,0.00,VWS V13.01,2013-04-02 06:30:00,
2013-04-02 02:33:00,45.2,33.4,29.96,NNW,329,0.0,11.0,63,0.00,,---,0.00,VWS V13.01,2013-04-02 06:33:00,
2013-04-02 02:35:00,45.2,33.4,29.96,North,355,6.0,11.0,63,0.00,,---,0.00,VWS V13.01,2013-04-02 06:35:00,
2013-04-02 02:38:00,45.1,33.3,29.96,NNE,24,0.0,11.0,63,0.00,,---,0.00,VWS V13.01,2013-04-02 06:38:00,
2013-04-02 02:39:00,45.1,32.9,29.96,North,349,2.0,16.0,62,0.00,,---,0.00,VWS V13.01,2013-04-02 06:39:00,
2013-04-02 02:40:00,45.0,33.2,29.96,NNE,21,1.0,16.0,63,0.00,,---,0.00,VWS V13.01,2013-04-02 06:40:00,
2013-04-02 02:43:00,45.0,32.8,29.96,NNW,331,4.0,16.0,62,0.00,,---,0.00,VWS V13.01,2013-04-02 06:43:00,
2013-04-02 02:44:00,45.0,32.8,29.96,NNW,348,0.0,16.0,62,0.00,,---,0.00,VWS V13.01,2013-04-02 06:44:00,
2013-04-02 02:45:00,45.0,32.8,29.96,North,350,2.0,16.0,62,0.00,,---,0.00,VWS V13.01,2013-04-02 06:45:00,
2013-04-02 02:48:00,45.0,32.8,29.96,North,360,2.0,16.0,62,0.00,,---,0.00,VWS V13.01,2013-04-02 06:48:00,
2013-04-02 02:49:00,44.9,32.7,29.96,NNW,346,1.0,16.0,62,0.00,,---,0.00,VWS V13.01,2013-04-02 06:49:00,
2013-04-02 02:50:00,44.9,32.7,29.96,NNW,343,1.0,16.0,62,0.00,,---,0.00,VWS V13.01,2013-04-02 06:50:00,
2013-04-02 02:53:00,44.9,32.7,29.96,North,355,9.0,16.0,62,0.00,,---,0.00,VWS V13.01,2013-04-02 06:53:00,
2013-04-02 02:55:00,44.8,32.6,29.96,North,5,3.0,16.0,62,0.00,,---,0.00,VWS V13.01,2013-04-02 06:55:00,
2013-04-02 02:58:00,44.7,32.5,29.97,NNW,338,4.0,16.0,62,0.00,,---,0.00,VWS V13.01,2013-04-02 06:58:00,
2013-04-02 03:00:00,44.7,32.5,29.96,NNW,342,0.0,16.0,62,0.00,,---,0.00,VWS V13.01,2013-04-02 07:00:00,
2013-04-02 03:01:00,44.7,32.5,29.96,North,350,0.0,16.0,62,0.00,,---,0.00,VWS V13.01,2013-04-02 07:01:00,
2013-04-02 03:03:00,44.6,32.4,29.97,North,355,0.0,4.0,62,0.00,,---,0.00,VWS V13.01,2013-04-02 07:03:00,
2013-04-02 03:05:00,44.6,32.0,29.97,North,355,2.0,4.0,61,0.00,,---,0.00,VWS V13.01,2013-04-02 07:05:00,
2013-04-02 03:06:00,44.6,32.4,29.97,North,355,0.0,4.0,62,0.00,,---,0.00,VWS V13.01,2013-04-02 07:06:00,
2013-04-02 03:08:00,44.6,32.4,29.97,ENE,57,2.0,5.0,62,0.00,,---,0.00,VWS V13.01,2013-04-02 07:08:00,
2013-04-02 03:10:00,44.5,31.9,29.97,NE,55,0.0,5.0,61,0.00,,---,0.00,VWS V13.01,2013-04-02 07:10:00,
2013-04-02 03:12:00,44.5,32.3,29.97,NE,55,0.0,5.0,62,0.00,,---,0.00,VWS V13.01,2013-04-02 07:12:00,
2013-04-02 03:13:00,44.5,32.3,29.97,NE,55,0.0,5.0,62,0.00,,---,0.00,VWS V13.01,2013-04-02 07:13:00,
2013-04-02 03:15:00,44.5,31.9,29.97,NE,54,0.0,5.0,61,0.00,,---,0.00,VWS V13.01,2013-04-02 07:15:00,
2013-04-02 03:17:00,44.5,31.9,29.97,NE,53,0.0,5.0,61,0.00,,---,0.00,VWS V13.01,2013-04-02 07:17:00,
2013-04-02 03:18:00,44.4,31.8,29.97,NE,54,0.0,5.0,61,0.00,,---,0.00,VWS V13.01,2013-04-02 07:18:00,
2013-04-02 03:20:00,44.4,31.8,29.97,NE,48,0.0,5.0,61,0.00,,---,0.00,VWS V13.01,2013-04-02 07:20:00,
2013-04-02 03:22:00,44.3,31.7,29.97,NE,48,0.0,5.0,61,0.00,,---,0.00,VWS V13.01,2013-04-02 07:22:00,
2013-04-02 03:23:00,44.3,31.7,29.97,NE,48,0.0,5.0,61,0.00,,---,0.00,VWS V13.01,2013-04-02 07:23:00,
2013-04-02 03:24:00,44.3,31.7,29.97,NE,48,0.0,5.0,61,0.00,,---,0.00,VWS V13.01,2013-04-02 07:24:00,
2013-04-02 03:25:00,44.3,31.7,29.97,NE,48,0.0,5.0,61,0.00,,---,0.00,VWS V13.01,2013-04-02 07:25:00,
2013-04-02 03:27:00,44.2,31.6,29.97,NE,45,2.0,5.0,61,0.00,,---,0.00,VWS V13.01,2013-04-02 07:27:00,
2013-04-02 03:28:00,44.2,31.6,29.97,NNE,29,0.0,6.0,61,0.00,,---,0.00,VWS V13.01,2013-04-02 07:28:00,
2013-04-02 03:29:00,44.2,31.6,29.97,NNE,29,0.0,6.0,61,0.00,,---,0.00,VWS V13.01,2013-04-02 07:29:00,
2013-04-02 03:30:00,44.1,31.9,29.98,NNE,29,0.0,6.0,62,0.00,,---,0.00,VWS V13.01,2013-04-02 07:30:00,
2013-04-02 03:33:00,44.0,31.8,29.97,NNE,29,0.0,1.0,62,0.00,,---,0.00,VWS V13.01,2013-04-02 07:33:00,
2013-04-02 03:34:00,44.0,31.8,29.97,NNE,29,0.0,1.0,62,0.00,,---,0.00,VWS V13.01,2013-04-02 07:34:00,
2013-04-02 03:35:00,44.0,31.8,29.98,NE,35,4.0,4.0,62,0.00,,---,0.00,VWS V13.01,2013-04-02 07:35:00,
2013-04-02 03:38:00,43.9,31.7,29.98,NE,47,0.0,5.0,62,0.00,,---,0.00,VWS V13.01,2013-04-02 07:38:00,
2013-04-02 03:39:00,43.8,31.6,29.98,NE,47,0.0,5.0,62,0.00,,---,0.00,VWS V13.01,2013-04-02 07:39:00,
2013-04-02 03:40:00,43.8,31.6,29.98,NE,47,0.0,5.0,62,0.00,,---,0.00,VWS V13.01,2013-04-02 07:40:00,
2013-04-02 03:43:00,43.7,31.5,29.98,NE,47,0.0,5.0,62,0.00,,---,0.00,VWS V13.01,2013-04-02 07:43:00,
2013-04-02 03:44:00,43.7,31.5,29.98,NE,47,0.0,5.0,62,0.00,,---,0.00,VWS V13.01,2013-04-02 07:44:00,
2013-04-02 03:45:00,43.7,31.5,29.98,NE,47,0.0,5.0,62,0.00,,---,0.00,VWS V13.01,2013-04-02 07:45:00,
2013-04-02 03:48:00,43.6,31.5,29.98,NE,47,0.0,5.0,62,0.00,,---,0.00,VWS V13.01,2013-04-02 07:48:00,
2013-04-02 03:49:00,43.6,31.5,29.98,NE,47,0.0,5.0,62,0.00,,---,0.00,VWS V13.01,2013-04-02 07:49:00,
2013-04-02 03:50:00,43.6,31.5,29.98,NE,46,0.0,5.0,62,0.00,,---,0.00,VWS V13.01,2013-04-02 07:50:00,
2013-04-02 03:53:00,43.5,31.4,29.98,NE,47,0.0,5.0,62,0.00,,---,0.00,VWS V13.01,2013-04-02 07:53:00,
2013-04-02 03:54:00,43.5,31.4,29.98,NE,46,0.0,5.0,62,0.00,,---,0.00,VWS V13.01,2013-04-02 07:54:00,
2013-04-02 03:55:00,43.4,31.3,29.98,NE,47,0.0,5.0,62,0.00,,---,0.00,VWS V13.01,2013-04-02 07:55:00,
2013-04-02 03:59:00,43.3,31.6,29.98,NE,47,0.0,5.0,63,0.00,,---,0.00,VWS V13.01,2013-04-02 07:59:00,
2013-04-02 04:00:00,43.3,31.6,29.98,NE,47,0.0,5.0,63,0.00,,---,0.00,VWS V13.01,2013-04-02 08:00:00,
2013-04-02 04:04:00,43.2,31.5,29.98,NE,47,0.0,1.0,63,0.00,,---,0.00,VWS V13.01,2013-04-02 08:04:00,
2013-04-02 04:06:00,43.1,31.4,29.98,NE,47,0.0,1.0,63,0.00,,---,0.00,VWS V13.01,2013-04-02 08:06:00,
2013-04-02 04:09:00,43.0,31.3,29.98,NE,46,0.0,1.0,63,0.00,,---,0.00,VWS V13.01,2013-04-02 08:09:00,
2013-04-02 04:12:00,42.9,31.2,29.98,NE,47,0.0,1.0,63,0.00,,---,0.00,VWS V13.01,2013-04-02 08:12:00,
2013-04-02 04:14:00,42.8,31.1,29.99,NE,47,0.0,1.0,63,0.00,,---,0.00,VWS V13.01,2013-04-02 08:14:00,
2013-04-02 04:15:00,42.8,31.1,29.99,NE,47,0.0,1.0,63,0.00,,---,0.00,VWS V13.01,2013-04-02 08:15:00,
2013-04-02 04:17:00,42.7,31.0,29.99,NE,47,0.0,2.0,63,0.00,,---,0.00,VWS V13.01,2013-04-02 08:17:00,
2013-04-02 04:19:00,42.6,30.9,29.99,NE,46,0.0,2.0,63,0.00,,---,0.00,VWS V13.01,2013-04-02 08:19:00,
2013-04-02 04:20:00,42.6,30.9,29.99,NE,47,0.0,2.0,63,0.00,,---,0.00,VWS V13.01,2013-04-02 08:20:00,
2013-04-02 04:22:00,42.5,30.8,29.99,NE,46,0.0,2.0,63,0.00,,---,0.00,VWS V13.01,2013-04-02 08:22:00,
2013-04-02 04:24:00,42.4,30.7,29.99,NE,47,0.0,2.0,63,0.00,,---,0.00,VWS V13.01,2013-04-02 08:24:00,
2013-04-02 04:25:00,42.4,30.7,29.99,NE,46,0.0,2.0,63,0.00,,---,0.00,VWS V13.01,2013-04-02 08:25:00,
2013-04-02 04:27:00,42.3,30.6,29.99,NE,46,0.0,2.0,63,0.00,,---,0.00,VWS V13.01,2013-04-02 08:27:00,
2013-04-02 04:29:00,42.3,30.6,29.99,NE,47,0.0,2.0,63,0.00,,---,0.00,VWS V13.01,2013-04-02 08:29:00,
2013-04-02 04:30:00,42.2,30.5,29.99,NE,46,0.0,2.0,63,0.00,,---,0.00,VWS V13.01,2013-04-02 08:30:00,
2013-04-02 04:33:00,42.1,30.8,29.99,NE,46,0.0,0.0,64,0.00,,---,0.00,VWS V13.01,2013-04-02 08:33:00,
2013-04-02 04:34:00,42.1,30.8,29.99,NE,47,0.0,1.0,64,0.00,,---,0.00,VWS V13.01,2013-04-02 08:34:00,
2013-04-02 04:35:00,42.0,30.7,29.99,NE,47,0.0,1.0,64,0.00,,---,0.00,VWS V13.01,2013-04-02 08:35:00,
2013-04-02 04:38:00,41.9,30.6,29.99,NE,47,0.0,1.0,64,0.00,,---,0.00,VWS V13.01,2013-04-02 08:38:00,
2013-04-02 04:40:00,41.9,30.6,30.00,NE,46,0.0,1.0,64,0.00,,---,0.00,VWS V13.01,2013-04-02 08:40:00,
2013-04-02 04:43:00,41.7,30.8,30.00,NE,46,0.0,1.0,65,0.00,,---,0.00,VWS V13.01,2013-04-02 08:43:00,
2013-04-02 04:45:00,41.6,30.7,30.00,NE,47,0.0,1.0,65,0.00,,---,0.00,VWS V13.01,2013-04-02 08:45:00,
2013-04-02 04:46:00,41.5,30.6,30.00,NE,47,0.0,1.0,65,0.00,,---,0.00,VWS V13.01,2013-04-02 08:46:00,
2013-04-02 04:48:00,41.5,30.6,30.00,NE,46,0.0,1.0,65,0.00,,---,0.00,VWS V13.01,2013-04-02 08:48:00,
2013-04-02 04:50:00,41.4,30.5,30.00,NE,47,0.0,1.0,65,0.00,,---,0.00,VWS V13.01,2013-04-02 08:50:00,
2013-04-02 04:51:00,41.4,30.5,30.00,NE,47,0.0,1.0,65,0.00,,---,0.00,VWS V13.01,2013-04-02 08:51:00,
2013-04-02 04:53:00,41.3,30.4,30.00,NE,47,0.0,1.0,65,0.00,,---,0.00,VWS V13.01,2013-04-02 08:53:00,
2013-04-02 04:55:00,41.2,30.7,30.00,NE,47,0.0,1.0,66,0.00,,---,0.00,VWS V13.01,2013-04-02 08:55:00,
2013-04-02 04:56:00,41.2,30.7,30.00,NE,47,0.0,1.0,66,0.00,,---,0.00,VWS V13.01,2013-04-02 08:56:00,
2013-04-02 04:58:00,41.1,30.6,30.00,NE,47,0.0,1.0,66,0.00,,---,0.00,VWS V13.01,2013-04-02 08:58:00,
2013-04-02 05:00:00,41.1,30.6,30.00,NE,47,0.0,1.0,66,0.00,,---,0.00,VWS V13.01,2013-04-02 09:00:00,
2013-04-02 05:02:00,41.1,30.6,30.00,NE,46,0.0,0.0,66,0.00,,---,0.00,VWS V13.01,2013-04-02 09:02:00,
2013-04-02 05:03:00,41.0,30.5,30.01,NE,47,0.0,0.0,66,0.00,,---,0.00,VWS V13.01,2013-04-02 09:03:00,
2013-04-02 05:05:00,41.0,30.5,30.01,NE,47,0.0,0.0,66,0.00,,---,0.00,VWS V13.01,2013-04-02 09:05:00,
2013-04-02 05:07:00,40.9,30.4,30.01,NE,46,0.0,0.0,66,0.00,,---,0.00,VWS V13.01,2013-04-02 09:07:00,
2013-04-02 05:08:00,40.9,30.4,30.01,NE,47,0.0,0.0,66,0.00,,---,0.00,VWS V13.01,2013-04-02 09:08:00,
2013-04-02 05:10:00,40.8,30.3,30.01,NE,47,0.0,0.0,66,0.00,,---,0.00,VWS V13.01,2013-04-02 09:10:00,
2013-04-02 05:13:00,40.7,30.6,30.01,NE,46,0.0,0.0,67,0.00,,---,0.00,VWS V13.01,2013-04-02 09:13:00,
2013-04-02 05:15:00,40.6,30.5,30.01,NE,47,0.0,0.0,67,0.00,,---,0.00,VWS V13.01,2013-04-02 09:15:00,
2013-04-02 05:18:00,40.5,30.4,30.01,NE,47,0.0,0.0,67,0.00,,---,0.00,VWS V13.01,2013-04-02 09:18:00,
2013-04-02 05:20:00,40.5,30.4,30.01,NE,47,0.0,0.0,67,0.00,,---,0.00,VWS V13.01,2013-04-02 09:20:00,
2013-04-02 05:23:00,40.4,30.7,30.01,NE,46,0.0,0.0,68,0.00,,---,0.00,VWS V13.01,2013-04-02 09:23:00,
2013-04-02 05:25:00,40.3,30.6,30.01,NE,46,0.0,0.0,68,0.00,,---,0.00,VWS V13.01,2013-04-02 09:25:00,
2013-04-02 05:28:00,40.2,30.5,30.01,NE,46,0.0,0.0,68,0.00,,---,0.00,VWS V13.01,2013-04-02 09:28:00,
2013-04-02 05:30:00,40.1,30.4,30.01,NE,47,0.0,0.0,68,0.00,,---,0.00,VWS V13.01,2013-04-02 09:30:00,
2013-04-02 05:33:00,40.0,30.3,30.02,NE,47,0.0,0.0,68,0.00,,---,0.00,VWS V13.01,2013-04-02 09:33:00,
2013-04-02 05:35:00,39.9,30.2,30.02,NE,46,0.0,0.0,68,0.00,,---,0.00,VWS V13.01,2013-04-02 09:35:00,
2013-04-02 05:36:00,39.9,30.6,30.02,NE,47,0.0,0.0,69,0.00,,---,0.00,VWS V13.01,2013-04-02 09:36:00,
2013-04-02 05:38:00,39.8,30.5,30.02,NE,46,0.0,0.0,69,0.00,,---,0.00,VWS V13.01,2013-04-02 09:38:00,
2013-04-02 05:41:00,39.7,30.4,30.02,NE,46,0.0,0.0,69,0.00,,---,0.00,VWS V13.01,2013-04-02 09:41:00,
2013-04-02 05:42:00,39.7,30.4,30.02,NE,47,0.0,0.0,69,0.00,,---,0.00,VWS V13.01,2013-04-02 09:42:00,
2013-04-02 05:43:00,39.6,30.3,30.02,NE,47,0.0,0.0,69,0.00,,---,0.00,VWS V13.01,2013-04-02 09:43:00,
2013-04-02 05:46:00,39.5,30.2,30.02,NE,46,0.0,0.0,69,0.00,,---,0.00,VWS V13.01,2013-04-02 09:46:00,
2013-04-02 05:47:00,39.5,30.2,30.02,NE,46,0.0,0.0,69,0.00,,---,0.00,VWS V13.01,2013-04-02 09:47:00,
2013-04-02 05:48:00,39.4,30.1,30.02,NE,47,0.0,0.0,69,0.00,,---,0.00,VWS V13.01,2013-04-02 09:48:00,
2013-04-02 05:51:00,39.3,30.4,30.02,NE,47,0.0,0.0,70,0.00,,---,0.00,VWS V13.01,2013-04-02 09:51:00,
2013-04-02 05:52:00,39.3,30.4,30.02,NE,47,0.0,0.0,70,0.00,,---,0.00,VWS V13.01,2013-04-02 09:52:00,
2013-04-02 05:53:00,39.2,30.6,30.02,NE,47,0.0,0.0,71,0.00,,---,0.00,VWS V13.01,2013-04-02 09:53:00,
2013-04-02 05:54:00,39.2,30.6,30.02,NE,47,0.0,0.0,71,0.00,,---,0.00,VWS V13.01,2013-04-02 09:54:00,
2013-04-02 05:57:00,39.0,30.4,30.03,NE,47,0.0,0.0,71,0.00,,---,0.00,VWS V13.01,2013-04-02 09:57:00,
2013-04-02 05:58:00,39.0,30.4,30.03,NE,46,0.0,0.0,71,0.00,,---,0.00,VWS V13.01,2013-04-02 09:58:00,
2013-04-02 05:59:00,39.0,30.4,30.03,NE,47,0.0,0.0,71,0.00,,---,0.00,VWS V13.01,2013-04-02 09:59:00,
2013-04-02 06:02:00,38.8,30.6,30.03,NE,46,0.0,0.0,72,0.00,,---,0.00,VWS V13.01,2013-04-02 10:02:00,
2013-04-02 06:03:00,38.8,30.2,30.03,NE,47,0.0,0.0,71,0.00,,---,0.00,VWS V13.01,2013-04-02 10:03:00,
2013-04-02 06:04:00,38.8,30.6,30.03,NE,46,0.0,0.0,72,0.00,,---,0.00,VWS V13.01,2013-04-02 10:04:00,
2013-04-02 06:07:00,38.7,30.5,30.03,NE,47,0.0,0.0,72,0.00,,---,0.00,VWS V13.01,2013-04-02 10:07:00,
2013-04-02 06:08:00,38.6,30.4,30.03,NE,47,0.0,0.0,72,0.00,,---,0.00,VWS V13.01,2013-04-02 10:08:00,
2013-04-02 06:09:00,38.6,30.4,30.03,NE,47,0.0,0.0,72,0.00,,---,0.00,VWS V13.01,2013-04-02 10:09:00,
2013-04-02 06:12:00,38.5,30.3,30.03,NE,47,0.0,0.0,72,0.00,,---,0.00,VWS V13.01,2013-04-02 10:12:00,
2013-04-02 06:13:00,38.5,30.6,30.03,NE,47,0.0,0.0,73,0.00,,---,0.00,VWS V13.01,2013-04-02 10:13:00,
2013-04-02 06:14:00,38.4,30.5,30.03,NE,46,0.0,0.0,73,0.00,,---,0.00,VWS V13.01,2013-04-02 10:14:00,
2013-04-02 06:17:00,38.3,30.8,30.03,NE,47,0.0,0.0,74,0.00,,---,0.00,VWS V13.01,2013-04-02 10:17:00,
2013-04-02 06:18:00,38.3,30.8,30.03,NE,47,0.0,0.0,74,0.00,,---,0.00,VWS V13.01,2013-04-02 10:18:00,
2013-04-02 06:19:00,38.3,31.1,30.04,NE,46,0.0,0.0,75,0.00,,---,0.00,VWS V13.01,2013-04-02 10:19:00,
2013-04-02 06:22:00,38.2,31.0,30.04,NE,47,0.0,0.0,75,0.00,,---,0.00,VWS V13.01,2013-04-02 10:22:00,
2013-04-02 06:23:00,38.1,30.9,30.04,NE,46,0.0,0.0,75,0.00,,---,0.00,VWS V13.01,2013-04-02 10:23:00,
2013-04-02 06:24:00,38.1,30.9,30.04,NE,46,0.0,0.0,75,0.00,,---,0.00,VWS V13.01,2013-04-02 10:24:00,
2013-04-02 06:25:00,38.0,30.8,30.04,NE,46,0.0,0.0,75,0.00,,---,0.00,VWS V13.01,2013-04-02 10:25:00,
2013-04-02 06:27:00,38.0,30.8,30.04,NE,47,0.0,0.0,75,0.00,,---,0.00,VWS V13.01,2013-04-02 10:27:00,
2013-04-02 06:28:00,38.0,30.8,30.04,NE,46,0.0,0.0,75,0.00,,---,0.00,VWS V13.01,2013-04-02 10:28:00,
2013-04-02 06:29:00,37.9,30.7,30.04,NE,47,0.0,0.0,75,0.00,,---,0.00,VWS V13.01,2013-04-02 10:29:00,
2013-04-02 06:30:00,37.9,30.7,30.04,NE,47,0.0,0.0,75,0.00,,---,0.00,VWS V13.01,2013-04-02 10:30:00,
2013-04-02 06:33:00,37.8,30.6,30.04,NE,47,0.0,0.0,75,0.00,,---,0.00,VWS V13.01,2013-04-02 10:33:00,
2013-04-02 06:34:00,37.8,30.6,30.04,NE,47,0.0,0.0,75,0.00,,---,0.00,VWS V13.01,2013-04-02 10:34:00,
2013-04-02 06:35:00,37.8,30.6,30.04,NE,46,0.0,0.0,75,0.00,,---,0.00,VWS V13.01,2013-04-02 10:35:00,
2013-04-02 06:38:00,37.7,30.8,30.04,NE,47,0.0,0.0,76,0.00,,---,0.00,VWS V13.01,2013-04-02 10:38:00,
2013-04-02 06:39:00,37.7,30.8,30.04,NE,47,0.0,0.0,76,0.00,,---,0.00,VWS V13.01,2013-04-02 10:39:00,
2013-04-02 06:40:00,37.6,30.7,30.05,NE,47,0.0,0.0,76,0.00,,---,0.00,VWS V13.01,2013-04-02 10:40:00,
2013-04-02 06:43:00,37.5,30.6,30.05,NE,46,0.0,0.0,76,0.00,,---,0.00,VWS V13.01,2013-04-02 10:43:00,
2013-04-02 06:44:00,37.5,30.6,30.05,NE,47,0.0,0.0,76,0.00,,---,0.00,VWS V13.01,2013-04-02 10:44:00,
2013-04-02 06:45:00,37.5,30.6,30.05,NE,46,0.0,0.0,76,0.00,,---,0.00,VWS V13.01,2013-04-02 10:45:00,
2013-04-02 06:48:00,37.4,30.5,30.05,NE,47,0.0,0.0,76,0.00,,---,0.00,VWS V13.01,2013-04-02 10:48:00,
2013-04-02 06:49:00,37.3,30.4,30.05,NE,47,0.0,0.0,76,0.00,,---,0.00,VWS V13.01,2013-04-02 10:49:00,
2013-04-02 06:50:00,37.3,30.4,30.05,NE,47,0.0,0.0,76,0.00,,---,0.00,VWS V13.01,2013-04-02 10:50:00,
2013-04-02 06:53:00,37.2,30.4,30.06,NE,47,0.0,0.0,76,0.00,,---,0.00,VWS V13.01,2013-04-02 10:53:00,
2013-04-02 06:54:00,37.2,30.4,30.06,NE,46,0.0,0.0,76,0.00,,---,0.00,VWS V13.01,2013-04-02 10:54:00,
2013-04-02 06:55:00,37.2,30.4,30.06,NE,47,0.0,0.0,76,0.00,,---,0.00,VWS V13.01,2013-04-02 10:55:00,
2013-04-02 06:56:00,37.1,30.6,30.06,NE,46,0.0,0.0,77,0.00,,---,0.00,VWS V13.01,2013-04-02 10:56:00,
2013-04-02 06:59:00,37.0,30.5,30.06,NE,47,0.0,0.0,77,0.00,,---,0.00,VWS V13.01,2013-04-02 10:59:00,
2013-04-02 07:00:00,37.0,30.5,30.06,NE,46,0.0,0.0,77,0.00,,---,0.00,VWS V13.01,2013-04-02 11:00:00,
2013-04-02 07:01:00,37.0,30.5,30.06,NE,47,0.0,0.0,77,0.00,,---,0.00,VWS V13.01,2013-04-02 11:01:00,
2013-04-02 07:04:00,36.9,30.4,30.06,NE,47,0.0,0.0,77,0.00,,---,0.00,VWS V13.01,2013-04-02 11:04:00,
2013-04-02 07:06:00,36.9,30.4,30.06,NE,46,0.0,0.0,77,0.00,,---,0.00,VWS V13.01,2013-04-02 11:06:00,
2013-04-02 07:09:00,36.8,30.3,30.07,NE,47,0.0,0.0,77,0.00,,---,0.00,VWS V13.01,2013-04-02 11:09:00,
2013-04-02 07:11:00,36.7,30.2,30.07,NE,47,0.0,0.0,77,0.00,,---,0.00,VWS V13.01,2013-04-02 11:11:00,
2013-04-02 07:12:00,36.7,30.2,30.07,NE,46,0.0,0.0,77,0.00,,---,0.00,VWS V13.01,2013-04-02 11:12:00,
2013-04-02 07:14:00,36.6,30.1,30.07,NE,47,0.0,0.0,77,0.00,,---,0.00,VWS V13.01,2013-04-02 11:14:00,
2013-04-02 07:15:00,36.6,30.1,30.07,NE,46,0.0,0.0,77,0.00,,---,0.00,VWS V13.01,2013-04-02 11:15:00,
2013-04-02 07:16:00,36.6,30.1,30.08,NE,47,0.0,0.0,77,0.00,,---,0.00,VWS V13.01,2013-04-02 11:16:00,
2013-04-02 07:17:00,36.6,30.1,30.08,NE,47,0.0,0.0,77,0.00,,---,0.00,VWS V13.01,2013-04-02 11:17:00,
2013-04-02 07:19:00,36.5,30.0,30.08,NE,47,0.0,0.0,77,0.00,,---,0.00,VWS V13.01,2013-04-02 11:19:00,
2013-04-02 07:20:00,36.5,30.0,30.08,NE,47,0.0,0.0,77,0.00,,---,0.00,VWS V13.01,2013-04-02 11:20:00,
2013-04-02 07:22:00,36.5,30.0,30.08,NE,47,0.0,0.0,77,0.00,,---,0.00,VWS V13.01,2013-04-02 11:22:00,
2013-04-02 07:25:00,36.4,29.9,30.08,NE,47,0.0,0.0,77,0.00,,---,0.00,VWS V13.01,2013-04-02 11:25:00,
2013-04-02 07:27:00,36.4,30.2,30.08,NE,46,0.0,0.0,78,0.00,,---,0.00,VWS V13.01,2013-04-02 11:27:00,
2013-04-02 07:30:00,36.3,30.1,30.09,NE,47,0.0,0.0,78,0.00,,---,0.00,VWS V13.01,2013-04-02 11:30:00,
2013-04-02 07:32:00,36.3,30.1,30.09,NE,46,0.0,0.0,78,0.00,,---,0.00,VWS V13.01,2013-04-02 11:32:00,
2013-04-02 07:35:00,36.2,30.3,30.09,NE,47,0.0,0.0,79,0.00,,---,0.00,VWS V13.01,2013-04-02 11:35:00,
2013-04-02 07:37:00,36.2,30.3,30.09,NE,46,0.0,0.0,79,0.00,,---,0.00,VWS V13.01,2013-04-02 11:37:00,
2013-04-02 07:40:00,36.1,30.5,30.09,NE,47,0.0,0.0,80,0.00,,---,0.00,VWS V13.01,2013-04-02 11:40:00,
2013-04-02 07:41:00,36.1,30.5,30.09,NE,47,0.0,0.0,80,0.00,,---,0.00,VWS V13.01,2013-04-02 11:41:00,
2013-04-02 07:42:00,36.1,30.5,30.09,NE,46,0.0,0.0,80,0.00,,---,0.00,VWS V13.01,2013-04-02 11:42:00,
2013-04-02 07:43:00,36.1,30.5,30.09,NE,47,0.0,0.0,80,0.00,,---,0.00,VWS V13.01,2013-04-02 11:43:00,
2013-04-02 07:45:00,36.1,30.5,30.09,NE,47,0.0,0.0,80,0.00,,---,0.00,VWS V13.01,2013-04-02 11:45:00,
2013-04-02 07:46:00,36.1,30.5,30.09,NE,47,0.0,0.0,80,0.00,,---,0.00,VWS V13.01,2013-04-02 11:46:00,
2013-04-02 07:48:00,36.1,30.8,30.10,NE,47,0.0,0.0,81,0.00,,---,0.00,VWS V13.01,2013-04-02 11:48:00,
2013-04-02 07:50:00,36.1,30.8,30.10,NE,47,0.0,0.0,81,0.00,,---,0.00,VWS V13.01,2013-04-02 11:50:00,
2013-04-02 07:51:00,36.1,30.8,30.10,NE,46,0.0,0.0,81,0.00,,---,0.00,VWS V13.01,2013-04-02 11:51:00,
2013-04-02 07:53:00,36.1,30.8,30.10,NE,47,0.0,0.0,81,0.00,,---,0.00,VWS V13.01,2013-04-02 11:53:00,
2013-04-02 07:55:00,36.2,31.2,30.10,NE,46,0.0,0.0,82,0.00,,---,0.00,VWS V13.01,2013-04-02 11:55:00,
2013-04-02 07:56:00,36.2,31.2,30.10,NE,47,0.0,0.0,82,0.00,,---,0.00,VWS V13.01,2013-04-02 11:56:00,
2013-04-02 07:58:00,36.2,31.2,30.10,NE,46,0.0,0.0,82,0.00,,---,0.00,VWS V13.01,2013-04-02 11:58:00,
2013-04-02 07:59:00,36.2,31.2,30.10,NE,47,0.0,0.0,82,0.00,,---,0.00,VWS V13.01,2013-04-02 11:59:00,
2013-04-02 08:01:00,36.2,31.2,30.10,NE,46,0.0,0.0,82,0.00,,---,0.00,VWS V13.01,2013-04-02 12:01:00,
2013-04-02 08:03:00,36.3,31.6,30.10,NE,47,0.0,0.0,83,0.00,,---,0.00,VWS V13.01,2013-04-02 12:03:00,
2013-04-02 08:04:00,36.3,31.6,30.10,NE,46,0.0,0.0,83,0.00,,---,0.00,VWS V13.01,2013-04-02 12:04:00,
2013-04-02 08:06:00,36.4,31.7,30.10,NE,47,0.0,0.0,83,0.00,,---,0.00,VWS V13.01,2013-04-02 12:06:00,
2013-04-02 08:07:00,36.4,31.7,30.10,NE,46,0.0,0.0,83,0.00,,---,0.00,VWS V13.01,2013-04-02 12:07:00,
2013-04-02 08:08:00,36.4,31.7,30.11,NE,47,0.0,0.0,83,0.00,,---,0.00,VWS V13.01,2013-04-02 12:08:00,
2013-04-02 08:09:00,36.5,32.1,30.10,NE,47,0.0,0.0,84,0.00,,---,0.00,VWS V13.01,2013-04-02 12:09:00,
2013-04-02 08:12:00,36.6,31.9,30.11,NE,47,0.0,0.0,83,0.00,,---,0.00,VWS V13.01,2013-04-02 12:12:00,
2013-04-02 08:13:00,36.6,31.9,30.11,NE,46,0.0,0.0,83,0.00,,---,0.00,VWS V13.01,2013-04-02 12:13:00,
2013-04-02 08:14:00,36.6,31.9,30.11,NE,47,0.0,0.0,83,0.00,,---,0.00,VWS V13.01,2013-04-02 12:14:00,
2013-04-02 08:17:00,36.8,32.1,30.11,NE,47,0.0,0.0,83,0.00,,---,0.00,VWS V13.01,2013-04-02 12:17:00,
2013-04-02 08:18:00,36.9,32.2,30.11,NE,46,0.0,0.0,83,0.00,,---,0.00,VWS V13.01,2013-04-02 12:18:00,
2013-04-02 08:19:00,36.9,32.2,30.11,NE,46,0.0,0.0,83,0.00,,---,0.00,VWS V13.01,2013-04-02 12:19:00,
2013-04-02 08:22:00,37.2,32.2,30.11,NE,46,0.0,1.0,82,0.00,,---,0.00,VWS V13.01,2013-04-02 12:22:00,
2013-04-02 08:23:00,37.3,32.3,30.11,NE,47,0.0,1.0,82,0.00,,---,0.00,VWS V13.01,2013-04-02 12:23:00,
2013-04-02 08:24:00,37.3,32.0,30.11,NE,47,0.0,1.0,81,0.00,,---,0.00,VWS V13.01,2013-04-02 12:24:00,
2013-04-02 08:27:00,37.6,32.3,30.11,NE,47,0.0,2.0,81,0.00,,---,0.00,VWS V13.01,2013-04-02 12:27:00,
2013-04-02 08:29:00,37.9,32.3,30.11,NE,42,0.0,5.0,80,0.00,,---,0.00,VWS V13.01,2013-04-02 12:29:00,
2013-04-02 08:30:00,38.0,32.4,30.11,NE,38,3.0,5.0,80,0.00,,---,0.00,VWS V13.01,2013-04-02 12:30:00,
2013-04-02 08:32:00,38.3,32.0,30.11,NE,38,0.0,3.0,78,0.00,,---,0.00,VWS V13.01,2013-04-02 12:32:00,
2013-04-02 08:33:00,38.4,31.8,30.11,NNE,30,3.0,4.0,77,0.00,,---,0.00,VWS V13.01,2013-04-02 12:33:00,
2013-04-02 08:34:00,38.6,31.7,30.11,NNE,25,1.0,6.0,76,0.00,,---,0.00,VWS V13.01,2013-04-02 12:34:00,
2013-04-02 08:35:00,38.7,31.8,30.11,NNE,24,2.0,6.0,76,0.00,,---,0.00,VWS V13.01,2013-04-02 12:35:00,
2013-04-02 08:38:00,39.2,31.0,30.11,North,5,1.0,6.0,72,0.00,,---,0.00,VWS V13.01,2013-04-02 12:38:00,
2013-04-02 08:39:00,39.4,31.1,30.11,North,355,5.0,7.0,72,0.00,,---,0.00,VWS V13.01,2013-04-02 12:39:00,
2013-04-02 08:40:00,39.5,31.2,30.11,NNW,344,3.0,7.0,72,0.00,,---,0.00,VWS V13.01,2013-04-02 12:40:00,
2013-04-02 08:43:00,40.0,31.0,30.11,NNW,344,0.0,7.0,70,0.00,,---,0.00,VWS V13.01,2013-04-02 12:43:00,
2013-04-02 08:44:00,40.2,30.9,30.11,NNW,344,2.0,7.0,69,0.00,,---,0.00,VWS V13.01,2013-04-02 12:44:00,
2013-04-02 08:45:00,40.3,31.0,30.11,NNW,346,2.0,7.0,69,0.00,,---,0.00,VWS V13.01,2013-04-02 12:45:00,
2013-04-02 08:48:00,40.8,30.7,30.11,NNE,22,2.0,9.0,67,0.00,,---,0.00,VWS V13.01,2013-04-02 12:48:00,
2013-04-02 08:49:00,40.9,30.4,30.11,NNE,19,4.0,9.0,66,0.00,,---,0.00,VWS V13.01,2013-04-02 12:49:00,
2013-04-02 08:50:00,41.1,30.6,30.11,North,355,8.0,9.0,66,0.00,,---,0.00,VWS V13.01,2013-04-02 12:50:00,
2013-04-02 08:53:00,41.6,30.3,30.11,North,5,5.0,10.0,64,0.00,,---,0.00,VWS V13.01,2013-04-02 12:53:00,
2013-04-02 08:54:00,41.8,30.1,30.11,North,360,0.0,10.0,63,0.00,,---,0.00,VWS V13.01,2013-04-02 12:54:00,
2013-04-02 08:55:00,41.9,30.2,30.11,NNW,342,6.0,10.0,63,0.00,,---,0.00,VWS V13.01,2013-04-02 12:55:00,
2013-04-02 08:58:00,42.4,29.9,30.11,NNW,344,11.0,11.0,61,0.00,,---,0.00,VWS V13.01,2013-04-02 12:58:00,
2013-04-02 08:59:00,42.7,29.8,30.11,North,355,6.0,11.0,60,0.00,,---,0.00,VWS V13.01,2013-04-02 12:59:00,
2013-04-02 09:00:00,42.7,29.8,30.11,North,355,1.0,11.0,60,0.00,,---,0.00,VWS V13.01,2013-04-02 13:00:00,
2013-04-02 09:03:00,43.2,29.4,30.11,North,360,0.0,11.0,58,0.00,,---,0.00,VWS V13.01,2013-04-02 13:03:00,
2013-04-02 09:04:00,43.4,29.6,30.11,North,360,0.0,11.0,58,0.00,,---,0.00,VWS V13.01,2013-04-02 13:04:00,
2013-04-02 09:05:00,43.4,30.0,30.11,North,355,2.0,11.0,59,0.00,,---,0.00,VWS V13.01,2013-04-02 13:05:00,
2013-04-02 09:08:00,43.9,30.1,30.11,North,360,0.0,11.0,58,0.00,,---,0.00,VWS V13.01,2013-04-02 13:08:00,
2013-04-02 09:09:00,44.0,29.8,30.11,North,360,1.0,11.0,57,0.00,,---,0.00,VWS V13.01,2013-04-02 13:09:00,
2013-04-02 09:10:00,44.1,30.3,30.11,North,360,0.0,11.0,58,0.00,,---,0.00,VWS V13.01,2013-04-02 13:10:00,
2013-04-02 09:13:00,44.5,30.2,30.11,North,355,4.0,11.0,57,0.00,,---,0.00,VWS V13.01,2013-04-02 13:13:00,
2013-04-02 09:15:00,44.7,30.0,30.11,NNE,13,6.0,11.0,56,0.00,,---,0.00,VWS V13.01,2013-04-02 13:15:00,
2013-04-02 09:16:00,44.9,30.2,30.11,NNE,17,0.0,11.0,56,0.00,,---,0.00,VWS V13.01,2013-04-02 13:16:00,
2013-04-02 09:18:00,45.1,30.4,30.11,North,355,0.0,11.0,56,0.00,,---,0.00,VWS V13.01,2013-04-02 13:18:00,
2013-04-02 09:20:00,45.2,30.0,30.11,North,355,1.0,11.0,55,0.00,,---,0.00,VWS V13.01,2013-04-02 13:20:00,
2013-04-02 09:21:00,45.5,30.3,30.11,North,360,0.0,11.0,55,0.00,,---,0.00,VWS V13.01,2013-04-02 13:21:00,
2013-04-02 09:23:00,45.7,30.0,30.11,NNW,336,5.0,11.0,54,0.00,,---,0.00,VWS V13.01,2013-04-02 13:23:00,
2013-04-02 09:25:00,45.9,30.2,30.11,NNW,336,1.0,11.0,54,0.00,,---,0.00,VWS V13.01,2013-04-02 13:25:00,
2013-04-02 09:26:00,46.0,30.3,30.11,NNW,336,0.0,11.0,54,0.00,,---,0.00,VWS V13.01,2013-04-02 13:26:00,
2013-04-02 09:29:00,46.3,30.6,30.11,North,10,1.0,11.0,54,0.00,,---,0.00,VWS V13.01,2013-04-02 13:29:00,
2013-04-02 09:30:00,46.4,30.2,30.11,NNE,30,1.0,11.0,53,0.00,,---,0.00,VWS V13.01,2013-04-02 13:30:00,
2013-04-02 09:32:00,46.6,30.4,30.12,NNE,15,3.0,6.0,53,0.00,,---,0.00,VWS V13.01,2013-04-02 13:32:00,
2013-04-02 09:34:00,46.8,30.6,30.11,NNW,348,9.0,9.0,53,0.00,,---,0.00,VWS V13.01,2013-04-02 13:34:00,
2013-04-02 09:35:00,46.9,30.7,30.11,NNW,336,7.0,9.0,53,0.00,,---,0.00,VWS V13.01,2013-04-02 13:35:00,
2013-04-02 09:37:00,47.1,30.4,30.11,NNW,348,0.0,9.0,52,0.00,,---,0.00,VWS V13.01,2013-04-02 13:37:00,
2013-04-02 09:39:00,47.3,30.6,30.11,North,350,3.0,9.0,52,0.00,,---,0.00,VWS V13.01,2013-04-02 13:39:00,
2013-04-02 09:40:00,47.4,30.7,30.11,North,351,0.0,9.0,52,0.00,,---,0.00,VWS V13.01,2013-04-02 13:40:00,
2013-04-02 09:43:00,47.6,30.9,30.11,North,350,0.0,9.0,52,0.00,,---,0.00,VWS V13.01,2013-04-02 13:43:00,
2013-04-02 09:44:00,47.7,31.0,30.11,North,350,0.0,9.0,52,0.00,,---,0.00,VWS V13.01,2013-04-02 13:44:00,
2013-04-02 09:45:00,47.9,31.1,30.11,North,350,3.0,9.0,52,0.00,,---,0.00,VWS V13.01,2013-04-02 13:45:00,
2013-04-02 09:48:00,48.1,30.4,30.11,North,355,0.0,9.0,50,0.00,,---,0.00,VWS V13.01,2013-04-02 13:48:00,
2013-04-02 09:49:00,48.3,30.5,30.11,North,355,3.0,9.0,50,0.00,,---,0.00,VWS V13.01,2013-04-02 13:49:00,
2013-04-02 09:50:00,48.3,30.5,30.11,North,355,1.0,9.0,50,0.00,,---,0.00,VWS V13.01,2013-04-02 13:50:00,
2013-04-02 09:53:00,48.6,30.8,30.11,North,355,3.0,9.0,50,0.00,,---,0.00,VWS V13.01,2013-04-02 13:53:00,
2013-04-02 09:54:00,48.7,30.4,30.11,North,355,0.0,9.0,49,0.00,,---,0.00,VWS V13.01,2013-04-02 13:54:00,
2013-04-02 09:55:00,48.8,30.5,30.11,North,355,2.0,9.0,49,0.00,,---,0.00,VWS V13.01,2013-04-02 13:55:00,
2013-04-02 09:58:00,49.0,30.7,30.11,North,360,0.0,9.0,49,0.00,,---,0.00,VWS V13.01,2013-04-02 13:58:00,
2013-04-02 09:59:00,49.1,30.8,30.11,North,360,0.0,9.0,49,0.00,,---,0.00,VWS V13.01,2013-04-02 13:59:00,
2013-04-02 10:00:00,49.2,30.9,30.11,North,360,0.0,9.0,49,0.00,,---,0.00,VWS V13.01,2013-04-02 14:00:00,
2013-04-02 10:01:00,49.2,30.9,30.11,North,360,0.0,1.0,49,0.00,,---,0.00,VWS V13.01,2013-04-02 14:01:00,
2013-04-02 10:03:00,49.4,31.1,30.11,NW,325,1.0,8.0,49,0.00,,---,0.00,VWS V13.01,2013-04-02 14:03:00,
2013-04-02 10:05:00,49.5,30.6,30.11,NW,325,0.0,8.0,48,0.00,,---,0.00,VWS V13.01,2013-04-02 14:05:00,
2013-04-02 10:06:00,49.6,30.7,30.11,NW,325,1.0,8.0,48,0.00,,---,0.00,VWS V13.01,2013-04-02 14:06:00,
2013-04-02 10:08:00,49.7,30.8,30.12,NW,325,0.0,8.0,48,0.00,,---,0.00,VWS V13.01,2013-04-02 14:08:00,
2013-04-02 10:10:00,49.8,30.4,30.11,NW,325,1.0,8.0,47,0.00,,---,0.00,VWS V13.01,2013-04-02 14:10:00,
2013-04-02 10:11:00,49.9,30.5,30.11,NW,325,0.0,8.0,47,0.00,,---,0.00,VWS V13.01,2013-04-02 14:11:00,
2013-04-02 10:13:00,49.9,30.5,30.11,NNW,333,1.0,8.0,47,0.00,,---,0.00,VWS V13.01,2013-04-02 14:13:00,
2013-04-02 10:15:00,50.0,30.6,30.11,NW,314,3.0,8.0,47,0.00,,---,0.00,VWS V13.01,2013-04-02 14:15:00,
2013-04-02 10:17:00,50.1,30.7,30.11,NW,315,0.0,8.0,47,0.00,,---,0.00,VWS V13.01,2013-04-02 14:17:00,
2013-04-02 10:18:00,50.2,30.8,30.11,NW,316,0.0,8.0,47,0.00,,---,0.00,VWS V13.01,2013-04-02 14:18:00,
2013-04-02 10:20:00,50.2,30.8,30.11,NW,317,3.0,8.0,47,0.00,,---,0.00,VWS V13.01,2013-04-02 14:20:00,
2013-04-02 10:22:00,50.3,30.3,30.11,NW,321,1.0,8.0,46,0.00,,---,0.00,VWS V13.01,2013-04-02 14:22:00,
2013-04-02 10:23:00,50.4,30.4,30.11,NW,326,4.0,8.0,46,0.00,,---,0.00,VWS V13.01,2013-04-02 14:23:00,
2013-04-02 10:25:00,50.5,30.5,30.11,NNW,327,0.0,8.0,46,0.00,,---,0.00,VWS V13.01,2013-04-02 14:25:00,
2013-04-02 10:27:00,50.6,30.6,30.11,NNW,327,2.0,8.0,46,0.00,,---,0.00,VWS V13.01,2013-04-02 14:27:00,
2013-04-02 10:28:00,50.7,30.7,30.11,NNW,331,0.0,10.0,46,0.00,,---,0.00,VWS V13.01,2013-04-02 14:28:00,
2013-04-02 10:30:00,50.9,30.3,30.11,WNW,295,1.0,11.0,45,0.00,,---,0.00,VWS V13.01,2013-04-02 14:30:00,
2013-04-02 10:32:00,51.0,31.0,30.11,NW,325,4.0,14.0,46,0.00,,---,0.00,VWS V13.01,2013-04-02 14:32:00,
2013-04-02 10:33:00,51.1,30.5,30.11,NNW,342,0.0,14.0,45,0.00,,---,0.00,VWS V13.01,2013-04-02 14:33:00,
2013-04-02 10:35:00,51.2,30.6,30.11,NW,326,4.0,14.0,45,0.00,,---,0.00,VWS V13.01,2013-04-02 14:35:00,
2013-04-02 10:38:00,51.4,30.8,30.11,NW,323,2.0,14.0,45,0.00,,---,0.00,VWS V13.01,2013-04-02 14:38:00,
2013-04-02 10:40:00,51.5,30.3,30.11,NW,319,0.0,14.0,44,0.00,,---,0.00,VWS V13.01,2013-04-02 14:40:00,
2013-04-02 10:43:00,51.5,30.3,30.11,NNW,341,2.0,14.0,44,0.00,,---,0.00,VWS V13.01,2013-04-02 14:43:00,
2013-04-02 10:44:00,51.5,30.3,30.11,NNW,342,0.0,14.0,44,0.00,,---,0.00,VWS V13.01,2013-04-02 14:44:00,
2013-04-02 10:45:00,51.7,31.1,30.11,NNW,346,4.0,14.0,45,0.00,,---,0.00,VWS V13.01,2013-04-02 14:45:00,
2013-04-02 10:48:00,51.8,30.6,30.11,NNW,348,1.0,14.0,44,0.00,,---,0.00,VWS V13.01,2013-04-02 14:48:00,
2013-04-02 10:49:00,51.8,30.6,30.11,North,355,4.0,14.0,44,0.00,,---,0.00,VWS V13.01,2013-04-02 14:49:00,
2013-04-02 10:51:00,51.9,31.2,30.11,North,355,2.0,14.0,45,0.00,,---,0.00,VWS V13.01,2013-04-02 14:51:00,
2013-04-02 10:53:00,52.0,30.2,30.11,NNW,342,6.0,14.0,43,0.00,,---,0.00,VWS V13.01,2013-04-02 14:53:00,
2013-04-02 10:54:00,52.1,30.3,30.11,NNW,338,0.0,14.0,43,0.00,,---,0.00,VWS V13.01,2013-04-02 14:54:00,
2013-04-02 10:57:00,52.1,30.9,30.11,NNW,333,0.0,14.0,44,0.00,,---,0.00,VWS V13.01,2013-04-02 14:57:00,
2013-04-02 10:59:00,52.2,31.0,30.11,NNW,336,7.0,14.0,44,0.00,,---,0.00,VWS V13.01,2013-04-02 14:59:00,
2013-04-02 11:02:00,52.4,31.1,30.12,NNW,338,2.0,4.0,44,0.00,,---,0.00,VWS V13.01,2013-04-02 15:02:00,
2013-04-02 11:04:00,52.5,30.7,30.12,NNW,338,0.0,6.0,43,0.00,,---,0.00,VWS V13.01,2013-04-02 15:04:00,
2013-04-02 11:07:00,52.5,30.1,30.12,NW,323,0.0,6.0,42,0.00,,---,0.00,VWS V13.01,2013-04-02 15:07:00,
2013-04-02 11:09:00,52.5,30.7,30.12,NNE,27,3.0,9.0,43,0.00,,---,0.00,VWS V13.01,2013-04-02 15:09:00,
2013-04-02 11:10:00,52.6,30.8,30.12,North,10,5.0,9.0,43,0.00,,---,0.00,VWS V13.01,2013-04-02 15:10:00,
2013-04-02 11:13:00,52.6,31.3,30.12,NNW,344,8.0,11.0,44,0.00,,---,0.00,VWS V13.01,2013-04-02 15:13:00,
2013-04-02 11:14:00,52.6,30.8,30.12,NNW,338,4.0,11.0,43,0.00,,---,0.00,VWS V13.01,2013-04-02 15:14:00,
2013-04-02 11:15:00,52.6,30.8,30.12,NNW,346,7.0,11.0,43,0.00,,---,0.00,VWS V13.01,2013-04-02 15:15:00,
2013-04-02 11:18:00,52.7,30.9,30.12,North,350,3.0,11.0,43,0.00,,---,0.00,VWS V13.01,2013-04-02 15:18:00,
2013-04-02 11:19:00,52.7,30.9,30.12,NNW,344,5.0,11.0,43,0.00,,---,0.00,VWS V13.01,2013-04-02 15:19:00,
2013-04-02 11:20:00,52.7,30.9,30.12,NNW,345,2.0,11.0,43,0.00,,---,0.00,VWS V13.01,2013-04-02 15:20:00,
2013-04-02 11:23:00,52.9,31.6,30.12,NW,322,4.0,12.0,44,0.00,,---,0.00,VWS V13.01,2013-04-02 15:23:00,
2013-04-02 11:24:00,52.9,31.6,30.12,NW,319,1.0,12.0,44,0.00,,---,0.00,VWS V13.01,2013-04-02 15:24:00,
2013-04-02 11:25:00,53.0,31.7,30.11,NW,319,3.0,12.0,44,0.00,,---,0.00,VWS V13.01,2013-04-02 15:25:00,
2013-04-02 11:28:00,53.1,31.2,30.11,NW,316,3.0,12.0,43,0.00,,---,0.00,VWS V13.01,2013-04-02 15:28:00,
2013-04-02 11:29:00,53.2,31.3,30.11,NW,312,5.0,12.0,43,0.00,,---,0.00,VWS V13.01,2013-04-02 15:29:00,
2013-04-02 11:30:00,53.2,31.3,30.12,NW,314,6.0,12.0,43,0.00,,---,0.00,VWS V13.01,2013-04-02 15:30:00,
2013-04-02 11:33:00,53.3,30.8,30.12,NW,322,5.0,8.0,42,0.00,,---,0.00,VWS V13.01,2013-04-02 15:33:00,
2013-04-02 11:34:00,53.4,30.9,30.12,WNW,303,0.0,8.0,42,0.00,,---,0.00,VWS V13.01,2013-04-02 15:34:00,
2013-04-02 11:35:00,53.4,30.9,30.11,WNW,303,0.0,8.0,42,0.00,,---,0.00,VWS V13.01,2013-04-02 15:35:00,
2013-04-02 11:38:00,53.5,31.6,30.11,NW,309,0.0,13.0,43,0.00,,---,0.00,VWS V13.01,2013-04-02 15:38:00,
2013-04-02 11:39:00,53.7,31.2,30.12,NW,323,1.0,13.0,42,0.00,,---,0.00,VWS V13.01,2013-04-02 15:39:00,
2013-04-02 11:40:00,53.7,31.2,30.12,NW,323,0.0,13.0,42,0.00,,---,0.00,VWS V13.01,2013-04-02 15:40:00,
2013-04-02 11:44:00,53.7,30.6,30.12,WNW,298,1.0,13.0,41,0.00,,---,0.00,VWS V13.01,2013-04-02 15:44:00,
2013-04-02 11:45:00,53.7,30.6,30.12,WNW,300,0.0,13.0,41,0.00,,---,0.00,VWS V13.01,2013-04-02 15:45:00,
2013-04-02 11:49:00,53.9,30.8,30.12,NW,315,5.0,13.0,41,0.00,,---,0.00,VWS V13.01,2013-04-02 15:49:00,
2013-04-02 11:50:00,53.9,31.4,30.12,NW,312,6.0,15.0,42,0.00,,---,0.00,VWS V13.01,2013-04-02 15:50:00,
2013-04-02 11:54:00,54.1,30.9,30.12,WNW,284,6.0,15.0,41,0.00,,---,0.00,VWS V13.01,2013-04-02 15:54:00,
2013-04-02 11:56:00,54.0,30.9,30.11,WNW,286,7.0,15.0,41,0.00,,---,0.00,VWS V13.01,2013-04-02 15:56:00,
2013-04-02 11:59:00,54.0,30.9,30.11,NW,306,5.0,15.0,41,0.00,,---,0.00,VWS V13.01,2013-04-02 15:59:00,
2013-04-02 12:01:00,54.0,31.5,30.11,West,279,3.0,4.0,42,0.00,,---,0.00,VWS V13.01,2013-04-02 16:01:00,
2013-04-02 12:05:00,54.2,31.0,30.11,WNW,283,12.0,15.0,41,0.00,,---,0.00,VWS V13.01,2013-04-02 16:05:00,
2013-04-02 12:07:00,54.2,31.0,30.11,West,269,4.0,15.0,41,0.00,,---,0.00,VWS V13.01,2013-04-02 16:07:00,
2013-04-02 12:10:00,54.4,31.2,30.11,SW,219,4.0,15.0,41,0.00,,---,0.00,VWS V13.01,2013-04-02 16:10:00,
2013-04-02 12:12:00,54.5,31.3,30.11,WNW,283,4.0,15.0,41,0.00,,---,0.00,VWS V13.01,2013-04-02 16:12:00,
2013-04-02 12:13:00,54.6,32.0,30.11,NW,318,0.0,15.0,42,0.00,,---,0.00,VWS V13.01,2013-04-02 16:13:00,
2013-04-02 12:15:00,54.8,32.2,30.11,WNW,292,16.0,18.0,42,0.00,,---,0.00,VWS V13.01,2013-04-02 16:15:00,
2013-04-02 12:17:00,54.9,31.0,30.11,West,272,3.0,18.0,40,0.00,,---,0.00,VWS V13.01,2013-04-02 16:17:00,
2013-04-02 12:18:00,54.9,31.7,30.11,NW,313,9.0,18.0,41,0.00,,---,0.00,VWS V13.01,2013-04-02 16:18:00,
2013-04-02 12:20:00,55.0,32.3,30.11,West,278,2.0,18.0,42,0.00,,---,0.00,VWS V13.01,2013-04-02 16:20:00,
2013-04-02 12:23:00,55.0,31.8,30.11,WNW,290,5.0,18.0,41,0.00,,---,0.00,VWS V13.01,2013-04-02 16:23:00,
2013-04-02 12:25:00,55.0,31.8,30.10,WNW,288,4.0,18.0,41,0.00,,---,0.00,VWS V13.01,2013-04-02 16:25:00,
2013-04-02 12:28:00,55.1,31.8,30.10,NNW,342,7.0,18.0,41,0.00,,---,0.00,VWS V13.01,2013-04-02 16:28:00,
2013-04-02 12:31:00,55.2,31.9,30.10,NNE,23,3.0,18.0,41,0.00,,---,0.00,VWS V13.01,2013-04-02 16:31:00,
2013-04-02 12:33:00,55.3,32.0,30.10,NNW,329,4.0,10.0,41,0.00,,---,0.00,VWS V13.01,2013-04-02 16:33:00,
2013-04-02 12:34:00,55.3,31.4,30.10,NNW,340,2.0,10.0,40,0.00,,---,0.00,VWS V13.01,2013-04-02 16:34:00,
2013-04-02 12:36:00,55.4,31.5,30.10,NW,319,4.0,10.0,40,0.00,,---,0.00,VWS V13.01,2013-04-02 16:36:00,
2013-04-02 12:38:00,55.4,32.7,30.09,NE,40,2.0,10.0,42,0.00,,---,0.00,VWS V13.01,2013-04-02 16:38:00,
2013-04-02 12:39:00,55.5,32.2,30.09,NNW,327,7.0,10.0,41,0.00,,---,0.00,VWS V13.01,2013-04-02 16:39:00,
2013-04-02 12:42:00,55.5,31.6,30.09,NNW,334,0.0,10.0,40,0.00,,---,0.00,VWS V13.01,2013-04-02 16:42:00,
2013-04-02 12:43:00,55.6,31.1,30.09,North,355,3.0,10.0,39,0.00,,---,0.00,VWS V13.01,2013-04-02 16:43:00,
2013-04-02 12:45:00,55.7,31.8,30.09,North,349,4.0,10.0,40,0.00,,---,0.00,VWS V13.01,2013-04-02 16:45:00,
2013-04-02 12:47:00,55.9,32.6,30.09,NE,35,11.0,11.0,41,0.00,,---,0.00,VWS V13.01,2013-04-02 16:47:00,
2013-04-02 12:48:00,55.9,32.0,30.09,WNW,290,4.0,12.0,40,0.00,,---,0.00,VWS V13.01,2013-04-02 16:48:00,
2013-04-02 12:50:00,56.1,31.5,30.09,NNW,346,5.0,12.0,39,0.00,,---,0.00,VWS V13.01,2013-04-02 16:50:00,
2013-04-02 12:52:00,56.2,29.6,30.09,West,277,3.0,15.0,36,0.00,,---,0.00,VWS V13.01,2013-04-02 16:52:00,
2013-04-02 12:53:00,56.2,29.6,30.09,North,360,6.0,15.0,36,0.00,,---,0.00,VWS V13.01,2013-04-02 16:53:00,
2013-04-02 12:57:00,56.4,30.5,30.08,WNW,286,1.0,15.0,37,0.00,,---,0.00,VWS V13.01,2013-04-02 16:57:00,
2013-04-02 12:58:00,56.6,32.0,30.09,NW,306,6.0,15.0,39,0.00,,---,0.00,VWS V13.01,2013-04-02 16:58:00,
2013-04-02 13:02:00,56.9,28.8,30.08,NNW,348,4.0,7.0,34,0.00,,---,0.00,VWS V13.01,2013-04-02 17:02:00,
2013-04-02 13:03:00,56.9,29.5,30.08,WNW,292,5.0,9.0,35,0.00,,---,0.00,VWS V13.01,2013-04-02 17:03:00,
2013-04-02 13:04:00,57.1,29.7,30.08,WNW,291,12.0,12.0,35,0.00,,---,0.00,VWS V13.01,2013-04-02 17:04:00,
2013-04-02 13:07:00,57.3,29.9,30.08,NW,326,6.0,12.0,35,0.00,,---,0.00,VWS V13.01,2013-04-02 17:07:00,
2013-04-02 13:08:00,57.3,29.9,30.08,NW,321,3.0,12.0,35,0.00,,---,0.00,VWS V13.01,2013-04-02 17:08:00,
2013-04-02 13:09:00,57.3,30.6,30.08,North,10,3.0,12.0,36,0.00,,---,0.00,VWS V13.01,2013-04-02 17:09:00,
2013-04-02 13:12:00,57.4,29.3,30.08,West,275,0.0,15.0,34,0.00,,---,0.00,VWS V13.01,2013-04-02 17:12:00,
2013-04-02 13:14:00,57.5,30.1,30.08,NW,309,3.0,15.0,35,0.00,,---,0.00,VWS V13.01,2013-04-02 17:14:00,
2013-04-02 13:18:00,57.7,31.0,30.08,NNW,333,4.0,15.0,36,0.00,,---,0.00,VWS V13.01,2013-04-02 17:18:00,
2013-04-02 13:19:00,57.7,31.0,30.08,WSW,256,9.0,15.0,36,0.00,,---,0.00,VWS V13.01,2013-04-02 17:19:00,
2013-04-02 13:23:00,57.8,30.4,30.08,North,360,7.0,16.0,35,0.00,,---,0.00,VWS V13.01,2013-04-02 17:23:00,
2013-04-02 13:24:00,57.8,31.0,30.08,North,355,6.0,16.0,36,0.00,,---,0.00,VWS V13.01,2013-04-02 17:24:00,
2013-04-02 13:28:00,58.0,30.5,30.07,WNW,299,5.0,16.0,35,0.00,,---,0.00,VWS V13.01,2013-04-02 17:28:00,
2013-04-02 13:29:00,58.0,29.8,30.07,NW,309,5.0,16.0,34,0.00,,---,0.00,VWS V13.01,2013-04-02 17:29:00,
2013-04-02 13:33:00,58.1,29.9,30.07,WNW,290,4.0,10.0,34,0.00,,---,0.00,VWS V13.01,2013-04-02 17:33:00,
2013-04-02 13:34:00,58.1,29.9,30.07,WNW,287,5.0,10.0,34,0.00,,---,0.00,VWS V13.01,2013-04-02 17:34:00,
2013-04-02 13:38:00,58.3,30.8,30.07,WNW,303,5.0,10.0,35,0.00,,---,0.00,VWS V13.01,2013-04-02 17:38:00,
2013-04-02 13:39:00,58.4,30.9,30.07,SW,215,1.0,11.0,35,0.00,,---,0.00,VWS V13.01,2013-04-02 17:39:00,
2013-04-02 13:44:00,58.6,30.3,30.07,NNW,337,4.0,12.0,34,0.00,,---,0.00,VWS V13.01,2013-04-02 17:44:00,
2013-04-02 13:49:00,59.0,29.2,30.07,West,260,3.0,16.0,32,0.00,,---,0.00,VWS V13.01,2013-04-02 17:49:00,
2013-04-02 13:50:00,59.0,29.2,30.07,WNW,296,11.0,17.0,32,0.00,,---,0.00,VWS V13.01,2013-04-02 17:50:00,
2013-04-02 13:54:00,58.9,29.1,30.07,NW,310,7.0,17.0,32,0.00,,---,0.00,VWS V13.01,2013-04-02 17:54:00,
2013-04-02 13:55:00,58.8,29.0,30.07,WNW,288,6.0,17.0,32,0.00,,---,0.00,VWS V13.01,2013-04-02 17:55:00,
2013-04-02 13:59:00,58.9,29.1,30.06,West,277,2.0,17.0,32,0.00,,---,0.00,VWS V13.01,2013-04-02 17:59:00,
2013-04-02 14:00:00,58.9,29.9,30.06,WNW,293,3.0,17.0,33,0.00,,---,0.00,VWS V13.01,2013-04-02 18:00:00,
2013-04-02 14:05:00,58.8,29.0,30.06,North,355,13.0,14.0,32,0.00,,---,0.00,VWS V13.01,2013-04-02 18:05:00,
2013-04-02 14:06:00,58.9,29.1,30.06,NW,321,5.0,14.0,32,0.00,,---,0.00,VWS V13.01,2013-04-02 18:06:00,
2013-04-02 14:10:00,59.0,29.2,30.06,NNW,336,11.0,14.0,32,0.00,,---,0.00,VWS V13.01,2013-04-02 18:10:00,
2013-04-02 14:11:00,59.0,30.0,30.06,WNW,291,5.0,14.0,33,0.00,,---,0.00,VWS V13.01,2013-04-02 18:11:00,
2013-04-02 14:15:00,59.0,29.2,30.06,WNW,287,3.0,14.0,32,0.00,,---,0.00,VWS V13.01,2013-04-02 18:15:00,
2013-04-02 14:17:00,59.0,28.4,30.06,West,265,6.0,14.0,31,0.00,,---,0.00,VWS V13.01,2013-04-02 18:17:00,
2013-04-02 14:20:00,59.0,27.6,30.06,West,276,6.0,14.0,30,0.00,,---,0.00,VWS V13.01,2013-04-02 18:20:00,
2013-04-02 14:22:00,59.0,28.4,30.06,West,267,5.0,14.0,31,0.00,,---,0.00,VWS V13.01,2013-04-02 18:22:00,
2013-04-02 14:26:00,59.1,28.5,30.06,West,277,3.0,17.0,31,0.00,,---,0.00,VWS V13.01,2013-04-02 18:26:00,
2013-04-02 14:27:00,59.2,29.4,30.06,WSW,252,9.0,17.0,32,0.00,,---,0.00,VWS V13.01,2013-04-02 18:27:00,
2013-04-02 14:31:00,59.3,27.9,30.06,SSW,210,0.0,17.0,30,0.00,,---,0.00,VWS V13.01,2013-04-02 18:31:00,
2013-04-02 14:32:00,59.4,30.3,30.05,West,262,7.0,7.0,33,0.00,,---,0.00,VWS V13.01,2013-04-02 18:32:00,
2013-04-02 14:36:00,59.5,28.1,30.05,NNW,340,5.0,11.0,30,0.00,,---,0.00,VWS V13.01,2013-04-02 18:36:00,
2013-04-02 14:37:00,59.5,28.1,30.05,NNW,327,7.0,12.0,30,0.00,,---,0.00,VWS V13.01,2013-04-02 18:37:00,
2013-04-02 14:41:00,59.5,28.1,30.05,NNW,331,4.0,16.0,30,0.00,,---,0.00,VWS V13.01,2013-04-02 18:41:00,
2013-04-02 14:42:00,59.5,28.9,30.05,NW,306,11.0,16.0,31,0.00,,---,0.00,VWS V13.01,2013-04-02 18:42:00,
2013-04-02 14:46:00,59.5,29.6,30.05,NW,307,12.0,17.0,32,0.00,,---,0.00,VWS V13.01,2013-04-02 18:46:00,
2013-04-02 14:47:00,59.5,28.9,30.05,WSW,240,8.0,17.0,31,0.00,,---,0.00,VWS V13.01,2013-04-02 18:47:00,
2013-04-02 14:48:00,59.6,28.1,30.05,WSW,245,1.0,17.0,30,0.00,,---,0.00,VWS V13.01,2013-04-02 18:48:00,
2013-04-02 14:52:00,59.8,29.1,30.05,WNW,289,4.0,17.0,31,0.00,,---,0.00,VWS V13.01,2013-04-02 18:52:00,
2013-04-02 14:54:00,59.9,28.4,30.04,WSW,254,11.0,17.0,30,0.00,,---,0.00,VWS V13.01,2013-04-02 18:54:00,
2013-04-02 14:57:00,59.9,28.4,30.04,NNE,24,3.0,17.0,30,0.00,,---,0.00,VWS V13.01,2013-04-02 18:57:00,
2013-04-02 14:59:00,59.9,29.2,30.04,NNW,329,4.0,17.0,31,0.00,,---,0.00,VWS V13.01,2013-04-02 18:59:00,
2013-04-02 15:02:00,60.0,30.1,30.03,NNW,327,5.0,9.0,32,0.00,,---,0.00,VWS V13.01,2013-04-02 19:02:00,
2013-04-02 15:04:00,60.0,29.3,30.03,North,10,4.0,9.0,31,0.00,,---,0.00,VWS V13.01,2013-04-02 19:04:00,
2013-04-02 15:07:00,60.3,29.6,30.03,WNW,301,2.0,11.0,31,0.00,,---,0.00,VWS V13.01,2013-04-02 19:07:00,
2013-04-02 15:09:00,60.4,30.4,30.03,West,273,3.0,12.0,32,0.00,,---,0.00,VWS V13.01,2013-04-02 19:09:00,
2013-04-02 15:12:00,60.6,29.0,30.03,West,267,7.0,14.0,30,0.00,,---,0.00,VWS V13.01,2013-04-02 19:12:00,
2013-04-02 15:14:00,60.6,29.0,30.03,West,267,5.0,14.0,30,0.00,,---,0.00,VWS V13.01,2013-04-02 19:14:00,
2013-04-02 15:17:00,60.8,30.8,30.03,West,269,1.0,14.0,32,0.00,,---,0.00,VWS V13.01,2013-04-02 19:17:00,
2013-04-02 15:18:00,60.8,30.8,30.03,West,269,0.0,14.0,32,0.00,,---,0.00,VWS V13.01,2013-04-02 19:18:00,
2013-04-02 15:19:00,60.9,28.5,30.03,WSW,252,6.0,16.0,29,0.00,,---,0.00,VWS V13.01,2013-04-02 19:19:00,
2013-04-02 15:22:00,61.1,29.5,30.03,West,263,1.0,16.0,30,0.00,,---,0.00,VWS V13.01,2013-04-02 19:22:00,
2013-04-02 15:23:00,61.2,29.5,30.03,NNW,327,7.0,16.0,30,0.00,,---,0.00,VWS V13.01,2013-04-02 19:23:00,
2013-04-02 15:24:00,61.3,27.9,30.03,NNW,342,4.0,16.0,28,0.00,,---,0.00,VWS V13.01,2013-04-02 19:24:00,
2013-04-02 15:28:00,61.3,27.9,30.03,WNW,292,0.0,16.0,28,0.00,,---,0.00,VWS V13.01,2013-04-02 19:28:00,
2013-04-02 15:29:00,61.4,28.9,30.02,WNW,288,4.0,17.0,29,0.00,,---,0.00,VWS V13.01,2013-04-02 19:29:00,
2013-04-02 15:33:00,61.4,28.9,30.02,WNW,286,1.0,14.0,29,0.00,,---,0.00,VWS V13.01,2013-04-02 19:33:00,
2013-04-02 15:35:00,61.4,28.0,30.02,West,269,9.0,14.0,28,0.00,,---,0.00,VWS V13.01,2013-04-02 19:35:00,
2013-04-02 15:38:00,61.4,28.0,30.02,NW,314,4.0,14.0,28,0.00,,---,0.00,VWS V13.01,2013-04-02 19:38:00,
2013-04-02 15:40:00,61.4,28.0,30.02,NNW,331,0.0,14.0,28,0.00,,---,0.00,VWS V13.01,2013-04-02 19:40:00,
2013-04-02 15:43:00,61.5,28.1,30.02,WNW,291,5.0,15.0,28,0.00,,---,0.00,VWS V13.01,2013-04-02 19:43:00,
2013-04-02 15:47:00,61.5,28.1,30.02,WSW,248,4.0,15.0,28,0.00,,---,0.00,VWS V13.01,2013-04-02 19:47:00,
2013-04-02 15:48:00,61.5,28.1,30.02,WNW,284,4.0,15.0,28,0.00,,---,0.00,VWS V13.01,2013-04-02 19:48:00,
2013-04-02 15:53:00,61.5,28.1,30.02,NW,321,2.0,15.0,28,0.00,,---,0.00,VWS V13.01,2013-04-02 19:53:00,
2013-04-02 15:54:00,61.4,28.9,30.02,North,355,9.0,19.0,29,0.00,,---,0.00,VWS V13.01,2013-04-02 19:54:00,
2013-04-02 15:58:00,61.2,27.9,30.02,West,278,5.0,19.0,28,0.00,,---,0.00,VWS V13.01,2013-04-02 19:58:00,
2013-04-02 15:59:00,61.1,27.8,30.02,WNW,294,5.0,19.0,28,0.00,,---,0.00,VWS V13.01,2013-04-02 19:59:00,
2013-04-02 16:03:00,61.1,27.8,30.02,WNW,294,6.0,15.0,28,0.00,,---,0.00,VWS V13.01,2013-04-02 20:03:00,
2013-04-02 16:04:00,61.0,28.5,30.02,WSW,254,5.0,15.0,29,0.00,,---,0.00,VWS V13.01,2013-04-02 20:04:00,
2013-04-02 16:09:00,61.0,27.7,30.02,WNW,284,11.0,15.0,28,0.00,,---,0.00,VWS V13.01,2013-04-02 20:09:00,
2013-04-02 16:14:00,61.0,28.5,30.02,WNW,292,5.0,15.0,29,0.00,,---,0.00,VWS V13.01,2013-04-02 20:14:00,
2013-04-02 16:19:00,60.8,28.4,30.02,NNE,32,2.0,16.0,29,0.00,,---,0.00,VWS V13.01,2013-04-02 20:19:00,
2013-04-02 16:20:00,60.7,27.4,30.02,NW,309,4.0,16.0,28,0.00,,---,0.00,VWS V13.01,2013-04-02 20:20:00,
2013-04-02 16:24:00,60.5,27.3,30.01,NW,325,3.0,16.0,28,0.00,,---,0.00,VWS V13.01,2013-04-02 20:24:00,
2013-04-02 16:25:00,60.5,27.3,30.01,NW,326,7.0,16.0,28,0.00,,---,0.00,VWS V13.01,2013-04-02 20:25:00,
2013-04-02 16:30:00,60.3,27.9,30.01,NW,325,4.0,16.0,29,0.00,,---,0.00,VWS V13.01,2013-04-02 20:30:00,
2013-04-02 16:35:00,60.3,27.9,30.02,WNW,282,5.0,10.0,29,0.00,,---,0.00,VWS V13.01,2013-04-02 20:35:00,
2013-04-02 16:40:00,60.3,27.9,30.02,WNW,291,3.0,13.0,29,0.00,,---,0.00,VWS V13.01,2013-04-02 20:40:00,
2013-04-02 16:45:00,60.4,27.2,30.01,NNW,333,3.0,17.0,28,0.00,,---,0.00,VWS V13.01,2013-04-02 20:45:00,
2013-04-02 16:50:00,60.3,27.9,30.01,WSW,254,4.0,17.0,29,0.00,,---,0.00,VWS V13.01,2013-04-02 20:50:00,
2013-04-02 16:51:00,60.3,27.9,30.01,NNW,342,10.0,17.0,29,0.00,,---,0.00,VWS V13.01,2013-04-02 20:51:00,
2013-04-02 16:56:00,60.2,27.9,30.01,WSW,254,5.0,17.0,29,0.00,,---,0.00,VWS V13.01,2013-04-02 20:56:00,
2013-04-02 17:01:00,60.3,27.9,30.01,WSW,250,3.0,17.0,29,0.00,,---,0.00,VWS V13.01,2013-04-02 21:01:00,
2013-04-02 17:02:00,60.3,27.1,30.01,WSW,245,0.0,7.0,28,0.00,,---,0.00,VWS V13.01,2013-04-02 21:02:00,
2013-04-02 17:07:00,60.3,27.1,30.01,West,274,11.0,11.0,28,0.00,,---,0.00,VWS V13.01,2013-04-02 21:07:00,
2013-04-02 17:08:00,60.3,27.1,30.01,WNW,300,5.0,11.0,28,0.00,,---,0.00,VWS V13.01,2013-04-02 21:08:00,
2013-04-02 17:12:00,60.4,27.2,30.01,NW,309,12.0,12.0,28,0.00,,---,0.00,VWS V13.01,2013-04-02 21:12:00,
2013-04-02 17:13:00,60.5,28.1,30.01,West,260,4.0,12.0,29,0.00,,---,0.00,VWS V13.01,2013-04-02 21:13:00,
2013-04-02 17:17:00,60.6,27.3,30.01,SW,235,1.0,12.0,28,0.00,,---,0.00,VWS V13.01,2013-04-02 21:17:00,
2013-04-02 17:18:00,60.6,27.3,30.01,WSW,238,3.0,12.0,28,0.00,,---,0.00,VWS V13.01,2013-04-02 21:18:00,
2013-04-02 17:23:00,60.7,26.5,30.01,West,273,5.0,14.0,27,0.00,,---,0.00,VWS V13.01,2013-04-02 21:23:00,
2013-04-02 17:28:00,60.7,26.5,30.01,WNW,302,1.0,14.0,27,0.00,,---,0.00,VWS V13.01,2013-04-02 21:28:00,
2013-04-02 17:30:00,60.7,26.5,30.01,West,281,0.0,14.0,27,0.00,,---,0.00,VWS V13.01,2013-04-02 21:30:00,
2013-04-02 17:33:00,60.7,26.5,30.02,West,270,1.0,6.0,27,0.00,,---,0.00,VWS V13.01,2013-04-02 21:33:00,
2013-04-02 17:35:00,60.7,27.4,30.01,NW,305,3.0,7.0,28,0.00,,---,0.00,VWS V13.01,2013-04-02 21:35:00,
2013-04-02 17:38:00,60.7,26.5,30.01,NNE,13,12.0,13.0,27,0.00,,---,0.00,VWS V13.01,2013-04-02 21:38:00,
2013-04-02 17:40:00,60.6,26.5,30.01,West,279,1.0,13.0,27,0.00,,---,0.00,VWS V13.01,2013-04-02 21:40:00,
2013-04-02 17:43:00,60.6,27.3,30.01,NW,315,2.0,13.0,28,0.00,,---,0.00,VWS V13.01,2013-04-02 21:43:00,
2013-04-02 17:44:00,60.5,27.3,30.01,NW,315,0.0,13.0,28,0.00,,---,0.00,VWS V13.01,2013-04-02 21:44:00,
2013-04-02 17:46:00,60.5,27.3,30.01,WNW,283,2.0,13.0,28,0.00,,---,0.00,VWS V13.01,2013-04-02 21:46:00,
2013-04-02 17:48:00,60.4,27.2,30.01,West,276,0.0,13.0,28,0.00,,---,0.00,VWS V13.01,2013-04-02 21:48:00,
2013-04-02 17:49:00,60.4,27.2,30.01,West,279,2.0,13.0,28,0.00,,---,0.00,VWS V13.01,2013-04-02 21:49:00,
2013-04-02 17:54:00,60.2,27.0,30.01,NW,311,2.0,13.0,28,0.00,,---,0.00,VWS V13.01,2013-04-02 21:54:00,
2013-04-02 17:59:00,60.0,27.7,30.02,NW,309,0.0,13.0,29,0.00,,---,0.00,VWS V13.01,2013-04-02 21:59:00,
2013-04-02 18:00:00,60.0,27.7,30.02,NW,311,2.0,13.0,29,0.00,,---,0.00,VWS V13.01,2013-04-02 22:00:00,
2013-04-02 18:04:00,59.8,25.8,30.01,NW,317,5.0,9.0,27,0.00,,---,0.00,VWS V13.01,2013-04-02 22:04:00,
2013-04-02 18:05:00,59.7,26.6,30.02,NW,313,2.0,9.0,28,0.00,,---,0.00,VWS V13.01,2013-04-02 22:05:00,
2013-04-02 18:09:00,59.5,26.4,30.01,SW,227,3.0,9.0,28,0.00,,---,0.00,VWS V13.01,2013-04-02 22:09:00,
2013-04-02 18:10:00,59.5,26.4,30.01,West,280,4.0,9.0,28,0.00,,---,0.00,VWS V13.01,2013-04-02 22:10:00,
2013-04-02 18:14:00,59.3,26.2,30.01,WNW,284,2.0,10.0,28,0.00,,---,0.00,VWS V13.01,2013-04-02 22:14:00,
2013-04-02 18:15:00,59.3,26.2,30.01,WNW,284,3.0,10.0,28,0.00,,---,0.00,VWS V13.01,2013-04-02 22:15:00,
2013-04-02 18:19:00,59.1,25.2,30.01,NW,310,5.0,11.0,27,0.00,,---,0.00,VWS V13.01,2013-04-02 22:19:00,
2013-04-02 18:20:00,59.1,25.2,30.01,NW,306,2.0,11.0,27,0.00,,---,0.00,VWS V13.01,2013-04-02 22:20:00,
2013-04-02 18:24:00,59.0,26.0,30.01,NW,318,0.0,11.0,28,0.00,,---,0.00,VWS V13.01,2013-04-02 22:24:00,
2013-04-02 18:25:00,59.0,26.0,30.01,NW,318,0.0,11.0,28,0.00,,---,0.00,VWS V13.01,2013-04-02 22:25:00,
2013-04-02 18:30:00,59.0,25.1,30.01,WSW,250,0.0,11.0,27,0.00,,---,0.00,VWS V13.01,2013-04-02 22:30:00,
2013-04-02 18:35:00,59.0,26.0,30.02,WNW,294,2.0,10.0,28,0.00,,---,0.00,VWS V13.01,2013-04-02 22:35:00,
2013-04-02 18:40:00,58.7,25.7,30.02,WNW,296,2.0,10.0,28,0.00,,---,0.00,VWS V13.01,2013-04-02 22:40:00,
2013-04-02 18:45:00,58.5,26.4,30.02,WNW,294,0.0,10.0,29,0.00,,---,0.00,VWS V13.01,2013-04-02 22:45:00,
2013-04-02 18:50:00,58.2,25.3,30.02,NW,313,0.0,10.0,28,0.00,,---,0.00,VWS V13.01,2013-04-02 22:50:00,
2013-04-02 18:56:00,58.0,26.0,30.02,NW,326,2.0,10.0,29,0.00,,---,0.00,VWS V13.01,2013-04-02 22:56:00,
2013-04-02 18:57:00,58.0,26.0,30.02,NW,326,1.0,10.0,29,0.00,,---,0.00,VWS V13.01,2013-04-02 22:57:00,
2013-04-02 19:01:00,57.7,25.7,30.02,NW,326,0.0,0.0,29,0.00,,---,0.00,VWS V13.01,2013-04-02 23:01:00,
2013-04-02 19:02:00,57.7,25.7,30.02,NNW,327,0.0,0.0,29,0.00,,---,0.00,VWS V13.01,2013-04-02 23:02:00,
2013-04-02 19:06:00,57.6,25.6,30.02,NW,326,0.0,0.0,29,0.00,,---,0.00,VWS V13.01,2013-04-02 23:06:00,
2013-04-02 19:07:00,57.6,25.6,30.02,NW,326,3.0,4.0,29,0.00,,---,0.00,VWS V13.01,2013-04-02 23:07:00,
2013-04-02 19:12:00,57.4,26.2,30.02,NW,326,0.0,4.0,30,0.00,,---,0.00,VWS V13.01,2013-04-02 23:12:00,
2013-04-02 19:17:00,57.2,26.1,30.02,NW,318,0.0,5.0,30,0.00,,---,0.00,VWS V13.01,2013-04-02 23:17:00,
2013-04-02 19:22:00,57.0,25.9,30.02,NW,318,1.0,5.0,30,0.00,,---,0.00,VWS V13.01,2013-04-02 23:22:00,
2013-04-02 19:23:00,57.0,25.1,30.02,NW,314,3.0,5.0,29,0.00,,---,0.00,VWS V13.01,2013-04-02 23:23:00,
2013-04-02 19:27:00,56.8,25.7,30.02,NW,315,0.0,5.0,30,0.00,,---,0.00,VWS V13.01,2013-04-02 23:27:00,
2013-04-02 19:28:00,56.8,25.7,30.02,NW,314,0.0,5.0,30,0.00,,---,0.00,VWS V13.01,2013-04-02 23:28:00,
2013-04-02 19:32:00,56.7,26.4,30.02,NW,315,0.0,1.0,31,0.00,,---,0.00,VWS V13.01,2013-04-02 23:32:00,
2013-04-02 19:33:00,56.6,26.3,30.02,NW,315,0.0,1.0,31,0.00,,---,0.00,VWS V13.01,2013-04-02 23:33:00,
2013-04-02 19:38:00,56.5,26.2,30.03,NW,315,0.0,1.0,31,0.00,,---,0.00,VWS V13.01,2013-04-02 23:38:00,
2013-04-02 19:43:00,56.2,26.0,30.03,NW,314,0.0,1.0,31,0.00,,---,0.00,VWS V13.01,2013-04-02 23:43:00,
2013-04-02 19:48:00,56.0,26.6,30.03,NW,314,0.0,1.0,32,0.00,,---,0.00,VWS V13.01,2013-04-02 23:48:00,
2013-04-02 19:53:00,55.8,26.4,30.03,NW,315,0.0,1.0,32,0.00,,---,0.00,VWS V13.01,2013-04-02 23:53:00,
2013-04-02 19:54:00,55.7,26.3,30.03,NW,314,0.0,1.0,32,0.00,,---,0.00,VWS V13.01,2013-04-02 23:54:00,
2013-04-02 19:59:00,55.4,27.5,30.03,NW,315,0.0,1.0,34,0.00,,---,0.00,VWS V13.01,2013-04-02 23:59:00,
2013-04-02 20:04:00,55.0,28.6,30.03,NW,315,0.0,1.0,36,0.00,,---,0.00,VWS V13.01,2013-04-03 00:04:00,
2013-04-02 20:05:00,54.9,28.5,30.03,NW,315,2.0,2.0,36,0.00,,---,0.00,VWS V13.01,2013-04-03 00:05:00,
2013-04-02 20:09:00,54.6,28.2,30.03,NW,314,0.0,2.0,36,0.00,,---,0.00,VWS V13.01,2013-04-03 00:09:00,
2013-04-02 20:10:00,54.5,28.1,30.03,NW,314,1.0,2.0,36,0.00,,---,0.00,VWS V13.01,2013-04-03 00:10:00,
2013-04-02 20:14:00,54.3,27.2,30.03,NW,315,0.0,2.0,35,0.00,,---,0.00,VWS V13.01,2013-04-03 00:14:00,
2013-04-02 20:15:00,54.2,27.9,30.03,NW,314,0.0,2.0,36,0.00,,---,0.00,VWS V13.01,2013-04-03 00:15:00,
2013-04-02 20:19:00,54.0,28.3,30.03,NW,315,0.0,2.0,37,0.00,,---,0.00,VWS V13.01,2013-04-03 00:19:00,
2013-04-02 20:20:00,53.9,28.2,30.03,NW,315,0.0,2.0,37,0.00,,---,0.00,VWS V13.01,2013-04-03 00:20:00,
2013-04-02 20:24:00,53.7,28.7,30.03,NW,314,0.0,2.0,38,0.00,,---,0.00,VWS V13.01,2013-04-03 00:24:00,
2013-04-02 20:29:00,53.4,28.5,30.03,NW,315,0.0,2.0,38,0.00,,---,0.00,VWS V13.01,2013-04-03 00:29:00,
2013-04-02 20:34:00,53.1,28.2,30.04,NW,315,0.0,1.0,38,0.00,,---,0.00,VWS V13.01,2013-04-03 00:34:00,
2013-04-02 20:39:00,52.9,27.4,30.04,NW,315,0.0,1.0,37,0.00,,---,0.00,VWS V13.01,2013-04-03 00:39:00,
2013-04-02 20:40:00,52.9,27.4,30.04,NW,314,0.0,1.0,37,0.00,,---,0.00,VWS V13.01,2013-04-03 00:40:00,
2013-04-02 20:44:00,52.7,27.8,30.04,NW,314,0.0,1.0,38,0.00,,---,0.00,VWS V13.01,2013-04-03 00:44:00,
2013-04-02 20:45:00,52.7,28.5,30.05,NW,315,0.0,1.0,39,0.00,,---,0.00,VWS V13.01,2013-04-03 00:45:00,
2013-04-02 20:49:00,52.6,27.7,30.05,NW,315,0.0,1.0,38,0.00,,---,0.00,VWS V13.01,2013-04-03 00:49:00,
2013-04-02 20:50:00,52.5,27.6,30.05,NW,314,0.0,1.0,38,0.00,,---,0.00,VWS V13.01,2013-04-03 00:50:00,
2013-04-02 20:55:00,52.3,26.2,30.05,NW,315,0.0,4.0,36,0.00,,---,0.00,VWS V13.01,2013-04-03 00:55:00,
2013-04-02 20:56:00,52.3,26.8,30.05,NW,314,0.0,4.0,37,0.00,,---,0.00,VWS V13.01,2013-04-03 00:56:00,
2013-04-02 21:00:00,52.2,26.7,30.05,NW,315,0.0,5.0,37,0.00,,---,0.00,VWS V13.01,2013-04-03 01:00:00,
2013-04-02 21:01:00,52.1,26.6,30.05,NW,315,0.0,1.0,37,0.00,,---,0.00,VWS V13.01,2013-04-03 01:01:00,
2013-04-02 21:05:00,52.1,26.6,30.05,NW,315,0.0,1.0,37,0.00,,---,0.00,VWS V13.01,2013-04-03 01:05:00,
2013-04-02 21:07:00,52.0,26.5,30.06,NW,315,0.0,1.0,37,0.00,,---,0.00,VWS V13.01,2013-04-03 01:07:00,
2013-04-02 21:10:00,51.9,26.5,30.06,NW,315,0.0,3.0,37,0.00,,---,0.00,VWS V13.01,2013-04-03 01:10:00,
2013-04-02 21:11:00,51.9,26.5,30.06,NW,315,0.0,3.0,37,0.00,,---,0.00,VWS V13.01,2013-04-03 01:11:00,
2013-04-02 21:12:00,51.9,26.5,30.06,NW,315,0.0,3.0,37,0.00,,---,0.00,VWS V13.01,2013-04-03 01:12:00,
2013-04-02 21:16:00,51.9,26.5,30.05,NW,315,0.0,3.0,37,0.00,,---,0.00,VWS V13.01,2013-04-03 01:16:00,
2013-04-02 21:17:00,51.9,26.5,30.05,NW,315,0.0,3.0,37,0.00,,---,0.00,VWS V13.01,2013-04-03 01:17:00,
2013-04-02 21:18:00,51.9,26.5,30.06,NW,315,0.0,3.0,37,0.00,,---,0.00,VWS V13.01,2013-04-03 01:18:00,
2013-04-02 21:22:00,51.8,27.0,30.06,NW,315,0.0,5.0,38,0.00,,---,0.00,VWS V13.01,2013-04-03 01:22:00,
2013-04-02 21:23:00,51.8,27.0,30.06,NW,314,0.0,5.0,38,0.00,,---,0.00,VWS V13.01,2013-04-03 01:23:00,
2013-04-02 21:27:00,51.8,27.6,30.06,NW,315,0.0,5.0,39,0.00,,---,0.00,VWS V13.01,2013-04-03 01:27:00,
2013-04-02 21:28:00,51.8,28.3,30.06,NW,314,0.0,5.0,40,0.00,,---,0.00,VWS V13.01,2013-04-03 01:28:00,
2013-04-02 21:32:00,51.8,27.6,30.06,NW,315,0.0,0.0,39,0.00,,---,0.00,VWS V13.01,2013-04-03 01:32:00,
2013-04-02 21:33:00,51.8,27.6,30.06,NW,315,0.0,0.0,39,0.00,,---,0.00,VWS V13.01,2013-04-03 01:33:00,
2013-04-02 21:38:00,51.7,27.6,30.07,NW,314,0.0,1.0,39,0.00,,---,0.00,VWS V13.01,2013-04-03 01:38:00,
2013-04-02 21:43:00,51.6,27.5,30.07,NW,315,0.0,3.0,39,0.00,,---,0.00,VWS V13.01,2013-04-03 01:43:00,
2013-04-02 21:48:00,51.5,27.4,30.07,NW,315,1.0,3.0,39,0.00,,---,0.00,VWS V13.01,2013-04-03 01:48:00,
2013-04-02 21:53:00,51.5,27.4,30.07,NW,315,0.0,5.0,39,0.00,,---,0.00,VWS V13.01,2013-04-03 01:53:00,
2013-04-02 21:58:00,51.5,26.8,30.07,NW,317,2.0,5.0,38,0.00,,---,0.00,VWS V13.01,2013-04-03 01:58:00,
2013-04-02 21:59:00,51.5,26.8,30.07,NW,317,0.0,5.0,38,0.00,,---,0.00,VWS V13.01,2013-04-03 01:59:00,
2013-04-02 22:03:00,51.4,26.0,30.07,NW,325,0.0,3.0,37,0.00,,---,0.00,VWS V13.01,2013-04-03 02:03:00,
2013-04-02 22:04:00,51.4,26.0,30.07,NW,325,0.0,3.0,37,0.00,,---,0.00,VWS V13.01,2013-04-03 02:04:00,
2013-04-02 22:09:00,51.4,26.7,30.07,NW,325,0.0,3.0,38,0.00,,---,0.00,VWS V13.01,2013-04-03 02:09:00,
2013-04-02 22:14:00,51.3,26.6,30.07,NW,325,0.0,3.0,38,0.00,,---,0.00,VWS V13.01,2013-04-03 02:14:00,
2013-04-02 22:19:00,51.3,25.9,30.07,NW,325,0.0,3.0,37,0.00,,---,0.00,VWS V13.01,2013-04-03 02:19:00,
2013-04-02 22:20:00,51.2,25.2,30.08,NW,325,1.0,5.0,36,0.00,,---,0.00,VWS V13.01,2013-04-03 02:20:00,
2013-04-02 22:24:00,51.1,25.8,30.08,NW,325,0.0,5.0,37,0.00,,---,0.00,VWS V13.01,2013-04-03 02:24:00,
2013-04-02 22:25:00,51.1,25.8,30.08,NW,325,0.0,5.0,37,0.00,,---,0.00,VWS V13.01,2013-04-03 02:25:00,
2013-04-02 22:29:00,51.0,25.0,30.08,NW,325,0.0,5.0,36,0.00,,---,0.00,VWS V13.01,2013-04-03 02:29:00,
2013-04-02 22:30:00,51.0,25.0,30.08,NW,325,0.0,5.0,36,0.00,,---,0.00,VWS V13.01,2013-04-03 02:30:00,
2013-04-02 22:34:00,51.0,25.0,30.08,NW,325,0.0,3.0,36,0.00,,---,0.00,VWS V13.01,2013-04-03 02:34:00,
2013-04-02 22:35:00,50.9,24.9,30.08,NW,325,0.0,3.0,36,0.00,,---,0.00,VWS V13.01,2013-04-03 02:35:00,
2013-04-02 22:39:00,50.9,25.6,30.09,NW,325,0.0,3.0,37,0.00,,---,0.00,VWS V13.01,2013-04-03 02:39:00,
2013-04-02 22:40:00,50.8,24.8,30.09,NW,325,0.0,3.0,36,0.00,,---,0.00,VWS V13.01,2013-04-03 02:40:00,
2013-04-02 22:42:00,50.8,24.8,30.09,NW,325,0.0,3.0,36,0.00,,---,0.00,VWS V13.01,2013-04-03 02:42:00,
2013-04-02 22:44:00,50.8,24.8,30.08,NW,325,0.0,3.0,36,0.00,,---,0.00,VWS V13.01,2013-04-03 02:44:00,
2013-04-02 22:45:00,50.8,25.5,30.08,NW,325,0.0,3.0,37,0.00,,---,0.00,VWS V13.01,2013-04-03 02:45:00,
2013-04-02 22:47:00,50.8,24.8,30.08,NW,325,0.0,3.0,36,0.00,,---,0.00,VWS V13.01,2013-04-03 02:47:00,
2013-04-02 22:49:00,50.7,26.0,30.08,NW,325,0.0,3.0,38,0.00,,---,0.00,VWS V13.01,2013-04-03 02:49:00,
2013-04-02 22:50:00,50.7,26.0,30.08,NW,325,0.0,3.0,38,0.00,,---,0.00,VWS V13.01,2013-04-03 02:50:00,
2013-04-02 22:52:00,50.7,26.0,30.09,NW,325,0.0,3.0,38,0.00,,---,0.00,VWS V13.01,2013-04-03 02:52:00,
2013-04-02 22:54:00,50.6,26.0,30.09,NW,325,0.0,3.0,38,0.00,,---,0.00,VWS V13.01,2013-04-03 02:54:00,
2013-04-02 22:55:00,50.6,26.0,30.09,NW,325,0.0,3.0,38,0.00,,---,0.00,VWS V13.01,2013-04-03 02:55:00,
2013-04-02 22:57:00,50.6,25.3,30.09,NW,325,0.0,3.0,37,0.00,,---,0.00,VWS V13.01,2013-04-03 02:57:00,
2013-04-02 22:59:00,50.5,25.2,30.09,NW,325,0.0,3.0,37,0.00,,---,0.00,VWS V13.01,2013-04-03 02:59:00,
2013-04-02 23:00:00,50.5,25.2,30.09,NW,325,0.0,3.0,37,0.00,,---,0.00,VWS V13.01,2013-04-03 03:00:00,
2013-04-02 23:03:00,50.4,25.1,30.09,NW,325,0.0,0.0,37,0.00,,---,0.00,VWS V13.01,2013-04-03 03:03:00,
2013-04-02 23:04:00,50.4,25.8,30.09,NW,325,0.0,0.0,38,0.00,,---,0.00,VWS V13.01,2013-04-03 03:04:00,
2013-04-02 23:06:00,50.4,25.8,30.09,NW,325,0.0,0.0,38,0.00,,---,0.00,VWS V13.01,2013-04-03 03:06:00,
2013-04-02 23:08:00,50.3,25.7,30.09,NW,325,0.0,0.0,38,0.00,,---,0.00,VWS V13.01,2013-04-03 03:08:00,
2013-04-02 23:09:00,50.3,25.7,30.09,NW,325,0.0,1.0,38,0.00,,---,0.00,VWS V13.01,2013-04-03 03:09:00,
2013-04-02 23:12:00,50.3,25.7,30.09,NW,325,0.0,1.0,38,0.00,,---,0.00,VWS V13.01,2013-04-03 03:12:00,
2013-04-02 23:13:00,50.2,25.6,30.09,NW,325,0.0,1.0,38,0.00,,---,0.00,VWS V13.01,2013-04-03 03:13:00,
2013-04-02 23:14:00,50.2,25.6,30.09,NW,325,0.0,1.0,38,0.00,,---,0.00,VWS V13.01,2013-04-03 03:14:00,
2013-04-02 23:18:00,50.1,25.5,30.09,NW,325,0.0,1.0,38,0.00,,---,0.00,VWS V13.01,2013-04-03 03:18:00,
2013-04-02 23:19:00,50.1,26.1,30.09,NW,325,0.0,1.0,39,0.00,,---,0.00,VWS V13.01,2013-04-03 03:19:00,
2013-04-02 23:20:00,50.0,26.0,30.09,NW,325,0.0,1.0,39,0.00,,---,0.00,VWS V13.01,2013-04-03 03:20:00,
2013-04-02 23:23:00,49.9,27.1,30.10,NNW,333,0.0,6.0,41,0.00,,---,0.00,VWS V13.01,2013-04-03 03:23:00,
2013-04-02 23:24:00,49.9,27.1,30.10,NNW,334,5.0,6.0,41,0.00,,---,0.00,VWS V13.01,2013-04-03 03:24:00,
2013-04-02 23:25:00,49.9,26.0,30.10,NNW,334,1.0,6.0,39,0.00,,---,0.00,VWS V13.01,2013-04-03 03:25:00,
2013-04-02 23:28:00,49.8,25.2,30.10,North,355,0.0,6.0,38,0.00,,---,0.00,VWS V13.01,2013-04-03 03:28:00,
2013-04-02 23:29:00,49.7,25.1,30.10,North,355,2.0,6.0,38,0.00,,---,0.00,VWS V13.01,2013-04-03 03:29:00,
2013-04-02 23:30:00,49.7,25.1,30.09,North,355,1.0,6.0,38,0.00,,---,0.00,VWS V13.01,2013-04-03 03:30:00,
2013-04-02 23:34:00,49.6,25.0,30.10,North,360,2.0,5.0,38,0.00,,---,0.00,VWS V13.01,2013-04-03 03:34:00,
2013-04-02 23:35:00,49.6,23.8,30.10,NE,34,3.0,6.0,36,0.00,,---,0.00,VWS V13.01,2013-04-03 03:35:00,
2013-04-02 23:39:00,49.6,23.8,30.10,NNE,31,0.0,6.0,36,0.00,,---,0.00,VWS V13.01,2013-04-03 03:39:00,
2013-04-02 23:40:00,49.6,23.8,30.10,NNE,31,0.0,6.0,36,0.00,,---,0.00,VWS V13.01,2013-04-03 03:40:00,
2013-04-02 23:44:00,49.5,23.7,30.10,NNE,28,0.0,6.0,36,0.00,,---,0.00,VWS V13.01,2013-04-03 03:44:00,
2013-04-02 23:45:00,49.5,23.7,30.10,NNE,28,0.0,6.0,36,0.00,,---,0.00,VWS V13.01,2013-04-03 03:45:00,
2013-04-02 23:49:00,49.5,23.7,30.10,NE,41,2.0,6.0,36,0.00,,---,0.00,VWS V13.01,2013-04-03 03:49:00,
2013-04-02 23:50:00,49.5,23.7,30.10,NE,37,2.0,6.0,36,0.00,,---,0.00,VWS V13.01,2013-04-03 03:50:00,
2013-04-02 23:52:00,49.5,23.7,30.10,NE,38,0.0,6.0,36,0.00,,---,0.00,VWS V13.01,2013-04-03 03:52:00,
2013-04-02 23:54:00,49.4,23.6,30.10,NE,38,0.0,6.0,36,0.00,,---,0.00,VWS V13.01,2013-04-03 03:54:00,
2013-04-02 23:55:00,49.4,23.6,30.10,NE,38,0.0,6.0,36,0.00,,---,0.00,VWS V13.01,2013-04-03 03:55:00,
2013-04-02 23:57:00,49.4,23.6,30.10,NE,36,2.0,7.0,36,0.00,,---,0.00,VWS V13.01,2013-04-03 03:57:00,